Time,TemperatureF,DewpointF,PressureIn,WindDirection,WindDirectionDegrees,WindSpeedMPH,WindSpeedGustMPH,Humidity,HourlyPrecipIn,Conditions,Clouds,dailyrainin,SoftwareType,DateUTC
2013-11-10 00:01:00,36.4,26.5,29.92,West,270,2.5,2.5,67,0.00,,,0.00,WUHU216HW,2013-11-10 07:01:00,
2013-11-10 00:03:00,36.4,26.5,29.92,West,270,1.1,2.5,67,0.00,,,0.00,WUHU216HW,2013-11-10 07:03:00,
2013-11-10 00:04:00,36.4,26.5,29.92,WNW,293,0.7,2.5,67,0.00,,,0.00,WUHU216HW,2013-11-10 07:04:00,
2013-11-10 00:06:00,36.2,26.3,29.92,WNW,293,0.7,2.5,67,0.00,,,0.00,WUHU216HW,2013-11-10 07:06:00,
2013-11-10 00:08:00,36.2,25.9,29.92,WNW,293,0.9,2.5,66,0.00,,,0.00,WUHU216HW,2013-11-10 07:08:00,
2013-11-10 00:09:00,36.4,26.1,29.92,NW,315,2.0,2.5,66,0.00,,,0.00,WUHU216HW,2013-11-10 07:09:00,
2013-11-10 00:10:00,36.4,26.5,29.92,NW,315,1.8,2.5,67,0.00,,,0.00,WUHU216HW,2013-11-10 07:10:00,
2013-11-10 00:11:00,36.2,26.3,29.91,NW,315,1.1,2.0,67,0.00,,,0.00,WUHU216HW,2013-11-10 07:11:00,
2013-11-10 00:13:00,36.2,26.3,29.92,WNW,293,0.7,2.0,67,0.00,,,0.00,WUHU216HW,2013-11-10 07:13:00,
2013-11-10 00:14:00,36.2,25.9,29.92,WNW,293,0.4,2.0,66,0.00,,,0.00,WUHU216HW,2013-11-10 07:14:00,
2013-11-10 00:15:00,36.2,25.9,29.91,WNW,293,1.1,2.0,66,0.00,,,0.00,WUHU216HW,2013-11-10 07:15:00,
2013-11-10 00:16:00,36.2,26.3,29.91,WNW,293,2.2,2.2,67,0.00,,,0.00,WUHU216HW,2013-11-10 07:16:00,
2013-11-10 00:18:00,36.2,26.3,29.92,West,270,2.9,3.1,67,0.00,,,0.00,WUHU216HW,2013-11-10 07:18:00,
2013-11-10 00:19:00,36.2,26.3,29.92,West,270,2.9,3.1,67,0.00,,,0.00,WUHU216HW,2013-11-10 07:19:00,
2013-11-10 00:20:00,36.2,26.3,29.92,West,270,1.1,3.1,67,0.00,,,0.00,WUHU216HW,2013-11-10 07:20:00,
2013-11-10 00:21:00,36.2,26.3,29.92,West,270,1.8,3.1,67,0.00,,,0.00,WUHU216HW,2013-11-10 07:21:00,
2013-11-10 00:22:00,36.2,26.3,29.92,West,270,2.5,3.1,67,0.00,,,0.00,WUHU216HW,2013-11-10 07:22:00,
2013-11-10 00:24:00,36.2,26.3,29.92,West,270,2.2,3.1,67,0.00,,,0.00,WUHU216HW,2013-11-10 07:24:00,
2013-11-10 00:25:00,36.2,26.7,29.92,West,270,3.1,3.1,68,0.00,,,0.00,WUHU216HW,2013-11-10 07:25:00,
2013-11-10 00:26:00,36.2,26.3,29.92,WSW,248,3.4,3.4,67,0.00,,,0.00,WUHU216HW,2013-11-10 07:26:00,
2013-11-10 00:27:00,36.2,26.3,29.92,West,270,2.7,3.4,67,0.00,,,0.00,WUHU216HW,2013-11-10 07:27:00,
2013-11-10 00:29:00,36.2,26.3,29.92,West,270,1.3,3.4,67,0.00,,,0.00,WUHU216HW,2013-11-10 07:29:00,
2013-11-10 00:30:00,36.2,26.3,29.91,WNW,293,1.6,3.4,67,0.00,,,0.00,WUHU216HW,2013-11-10 07:30:00,
2013-11-10 00:32:00,36.2,26.7,29.92,WNW,293,3.1,3.4,68,0.00,,,0.00,WUHU216HW,2013-11-10 07:32:00,
2013-11-10 00:34:00,36.2,26.7,29.92,West,270,2.7,3.4,68,0.00,,,0.00,WUHU216HW,2013-11-10 07:34:00,
2013-11-10 00:35:00,36.4,26.5,29.91,WNW,293,2.2,3.4,67,0.00,,,0.00,WUHU216HW,2013-11-10 07:35:00,
2013-11-10 00:37:00,36.2,26.3,29.91,WSW,248,1.1,3.4,67,0.00,,,0.00,WUHU216HW,2013-11-10 07:37:00,
2013-11-10 00:39:00,36.2,26.3,29.91,West,270,0.4,3.4,67,0.00,,,0.00,WUHU216HW,2013-11-10 07:39:00,
2013-11-10 00:40:00,36.4,26.5,29.91,West,270,1.1,3.4,67,0.00,,,0.00,WUHU216HW,2013-11-10 07:40:00,
2013-11-10 00:41:00,36.4,26.5,29.91,West,270,1.8,3.4,67,0.00,,,0.00,WUHU216HW,2013-11-10 07:41:00,
2013-11-10 00:42:00,36.4,26.5,29.91,WSW,248,2.0,3.1,67,0.00,,,0.00,WUHU216HW,2013-11-10 07:42:00,
2013-11-10 00:44:00,36.2,26.3,29.91,WSW,248,1.6,3.1,67,0.00,,,0.00,WUHU216HW,2013-11-10 07:44:00,
2013-11-10 00:46:00,36.2,26.3,29.91,West,270,0.4,2.5,67,0.00,,,0.00,WUHU216HW,2013-11-10 07:46:00,
2013-11-10 00:47:00,36.2,26.3,29.91,West,270,1.3,2.5,67,0.00,,,0.00,WUHU216HW,2013-11-10 07:47:00,
2013-11-10 00:49:00,36.2,26.7,29.91,West,270,1.8,2.5,68,0.00,,,0.00,WUHU216HW,2013-11-10 07:49:00,
2013-11-10 00:51:00,36.2,26.7,29.91,West,270,1.6,2.5,68,0.00,,,0.00,WUHU216HW,2013-11-10 07:51:00,
2013-11-10 00:53:00,36.2,27.0,29.91,NW,315,1.8,2.0,69,0.00,,,0.00,WUHU216HW,2013-11-10 07:53:00,
2013-11-10 00:54:00,36.2,27.0,29.91,NW,315,2.2,2.2,69,0.00,,,0.00,WUHU216HW,2013-11-10 07:54:00,
2013-11-10 00:55:00,36.2,26.7,29.91,NW,315,2.2,2.2,68,0.00,,,0.00,WUHU216HW,2013-11-10 07:55:00,
2013-11-10 00:56:00,36.2,26.7,29.91,NW,315,3.1,3.1,68,0.00,,,0.00,WUHU216HW,2013-11-10 07:56:00,
2013-11-10 00:59:00,36.2,27.0,29.91,NW,315,2.9,3.8,69,0.00,,,0.00,WUHU216HW,2013-11-10 07:59:00,
2013-11-10 01:00:00,36.2,27.0,29.91,NW,315,2.7,3.8,69,0.00,,,0.00,WUHU216HW,2013-11-10 08:00:00,
2013-11-10 01:01:00,36.2,27.0,29.91,NNW,338,1.6,3.8,69,0.00,,,0.00,WUHU216HW,2013-11-10 08:01:00,
2013-11-10 01:02:00,36.0,27.2,29.91,NNW,338,1.6,3.8,70,0.00,,,0.00,WUHU216HW,2013-11-10 08:02:00,
2013-11-10 01:04:00,36.0,27.2,29.91,NW,315,1.8,3.8,70,0.00,,,0.00,WUHU216HW,2013-11-10 08:04:00,
2013-11-10 01:05:00,36.0,27.2,29.91,WNW,293,1.8,3.8,70,0.00,,,0.00,WUHU216HW,2013-11-10 08:05:00,
2013-11-10 01:06:00,35.8,27.0,29.91,NW,315,1.1,3.8,70,0.00,,,0.00,WUHU216HW,2013-11-10 08:06:00,
2013-11-10 01:07:00,35.8,27.0,29.91,NW,315,1.1,3.8,70,0.00,,,0.00,WUHU216HW,2013-11-10 08:07:00,
2013-11-10 01:09:00,35.8,27.0,29.91,WNW,293,1.6,2.7,70,0.00,,,0.00,WUHU216HW,2013-11-10 08:09:00,
2013-11-10 01:10:00,35.8,27.0,29.91,West,270,2.0,2.7,70,0.00,,,0.00,WUHU216HW,2013-11-10 08:10:00,
2013-11-10 01:11:00,35.6,26.8,29.91,West,270,1.8,2.2,70,0.00,,,0.00,WUHU216HW,2013-11-10 08:11:00,
2013-11-10 01:12:00,35.6,26.8,29.91,West,270,0.9,2.2,70,0.00,,,0.00,WUHU216HW,2013-11-10 08:12:00,
2013-11-10 01:14:00,35.6,26.5,29.91,WSW,248,1.1,2.2,69,0.00,,,0.00,WUHU216HW,2013-11-10 08:14:00,
2013-11-10 01:15:00,35.6,26.5,29.91,WSW,248,1.1,2.2,69,0.00,,,0.00,WUHU216HW,2013-11-10 08:15:00,
2013-11-10 01:16:00,35.6,26.5,29.91,WSW,248,1.3,2.5,69,0.00,,,0.00,WUHU216HW,2013-11-10 08:16:00,
2013-11-10 01:17:00,35.6,26.5,29.90,WSW,248,0.9,2.5,69,0.00,,,0.00,WUHU216HW,2013-11-10 08:17:00,
2013-11-10 01:19:00,35.8,26.7,29.90,ENE,68,0.2,2.5,69,0.00,,,0.00,WUHU216HW,2013-11-10 08:19:00,
2013-11-10 01:20:00,35.8,26.7,29.90,ENE,68,0.0,2.5,69,0.00,,,0.00,WUHU216HW,2013-11-10 08:20:00,
2013-11-10 01:21:00,35.8,26.7,29.90,ENE,68,0.2,2.5,69,0.00,,,0.00,WUHU216HW,2013-11-10 08:21:00,
2013-11-10 01:22:00,35.8,26.7,29.90,West,270,0.7,2.5,69,0.00,,,0.00,WUHU216HW,2013-11-10 08:22:00,
2013-11-10 01:25:00,36.0,26.8,29.90,West,270,0.0,2.5,69,0.00,,,0.00,WUHU216HW,2013-11-10 08:25:00,
2013-11-10 01:26:00,35.8,26.7,29.90,West,270,0.0,1.3,69,0.00,,,0.00,WUHU216HW,2013-11-10 08:26:00,
2013-11-10 01:27:00,36.0,26.8,29.90,West,270,0.0,1.1,69,0.00,,,0.00,WUHU216HW,2013-11-10 08:27:00,
2013-11-10 01:30:00,36.0,26.8,29.90,WSW,248,1.1,1.1,69,0.00,,,0.00,WUHU216HW,2013-11-10 08:30:00,
2013-11-10 01:31:00,36.0,26.8,29.90,WSW,248,0.7,1.1,69,0.00,,,0.00,WUHU216HW,2013-11-10 08:31:00,
2013-11-10 01:32:00,36.0,26.8,29.90,WSW,248,0.7,1.1,69,0.00,,,0.00,WUHU216HW,2013-11-10 08:32:00,
2013-11-10 01:33:00,36.0,26.8,29.90,WSW,248,0.7,1.1,69,0.00,,,0.00,WUHU216HW,2013-11-10 08:33:00,
2013-11-10 01:35:00,36.0,26.8,29.90,WSW,248,0.0,1.1,69,0.00,,,0.00,WUHU216HW,2013-11-10 08:35:00,
2013-11-10 01:37:00,36.0,26.8,29.90,SSW,203,0.9,1.1,69,0.00,,,0.00,WUHU216HW,2013-11-10 08:37:00,
2013-11-10 01:38:00,36.0,26.8,29.90,SSW,203,0.4,1.1,69,0.00,,,0.00,WUHU216HW,2013-11-10 08:38:00,
2013-11-10 01:40:00,36.0,27.2,29.90,SW,225,0.0,0.9,70,0.00,,,0.00,WUHU216HW,2013-11-10 08:40:00,
2013-11-10 01:41:00,36.0,27.2,29.90,SW,225,0.0,0.9,70,0.00,,,0.00,WUHU216HW,2013-11-10 08:41:00,
2013-11-10 01:43:00,36.0,27.2,29.90,SW,225,0.0,0.9,70,0.00,,,0.00,WUHU216HW,2013-11-10 08:43:00,
2013-11-10 01:46:00,36.0,27.2,29.90,SW,225,0.0,0.9,70,0.00,,,0.00,WUHU216HW,2013-11-10 08:46:00,
2013-11-10 01:48:00,36.0,27.2,29.90,WSW,248,1.3,1.3,70,0.00,,,0.00,WUHU216HW,2013-11-10 08:48:00,
2013-11-10 01:49:00,36.2,27.4,29.90,WSW,248,1.1,1.3,70,0.00,,,0.00,WUHU216HW,2013-11-10 08:49:00,
2013-11-10 01:51:00,36.2,27.4,29.90,WSW,248,0.4,1.3,70,0.00,,,0.00,WUHU216HW,2013-11-10 08:51:00,
2013-11-10 01:53:00,36.0,27.2,29.90,WSW,248,0.2,1.3,70,0.00,,,0.00,WUHU216HW,2013-11-10 08:53:00,
2013-11-10 01:54:00,36.0,27.2,29.90,WSW,248,0.0,1.3,70,0.00,,,0.00,WUHU216HW,2013-11-10 08:54:00,
2013-11-10 01:56:00,36.2,27.4,29.90,NNE,23,0.7,1.3,70,0.00,,,0.00,WUHU216HW,2013-11-10 08:56:00,
2013-11-10 01:58:00,36.4,27.5,29.90,NNE,23,0.0,1.1,70,0.00,,,0.00,WUHU216HW,2013-11-10 08:58:00,
2013-11-10 01:59:00,36.4,27.5,29.90,NNE,23,0.0,1.1,70,0.00,,,0.00,WUHU216HW,2013-11-10 08:59:00,
2013-11-10 02:00:00,36.4,27.2,29.90,NNE,23,0.0,0.9,69,0.00,,,0.00,WUHU216HW,2013-11-10 09:00:00,
2013-11-10 02:01:00,36.4,27.2,29.90,NNE,23,0.0,0.9,69,0.00,,,0.00,WUHU216HW,2013-11-10 09:01:00,
2013-11-10 02:03:00,36.4,27.2,29.90,NNE,23,0.0,0.9,69,0.00,,,0.00,WUHU216HW,2013-11-10 09:03:00,
2013-11-10 02:04:00,36.4,27.2,29.90,WSW,248,1.3,1.3,69,0.00,,,0.00,WUHU216HW,2013-11-10 09:04:00,
2013-11-10 02:05:00,36.4,27.5,29.90,SW,225,2.0,2.0,70,0.00,,,0.00,WUHU216HW,2013-11-10 09:05:00,
2013-11-10 02:06:00,36.4,27.5,29.90,SW,225,1.1,2.0,70,0.00,,,0.00,WUHU216HW,2013-11-10 09:06:00,
2013-11-10 02:07:00,36.4,27.5,29.90,SW,225,0.4,2.0,70,0.00,,,0.00,WUHU216HW,2013-11-10 09:07:00,
2013-11-10 02:08:00,36.4,27.5,29.90,SE,135,0.4,2.0,70,0.00,,,0.00,WUHU216HW,2013-11-10 09:08:00,
2013-11-10 02:09:00,36.4,27.5,29.90,SE,135,0.4,2.0,70,0.00,,,0.00,WUHU216HW,2013-11-10 09:09:00,
2013-11-10 02:10:00,36.4,27.5,29.90,SE,135,0.0,2.0,70,0.00,,,0.00,WUHU216HW,2013-11-10 09:10:00,
2013-11-10 02:11:00,36.4,27.5,29.90,SE,135,0.0,2.0,70,0.00,,,0.00,WUHU216HW,2013-11-10 09:11:00,
2013-11-10 02:12:00,36.4,27.5,29.90,ESE,113,0.4,2.0,70,0.00,,,0.00,WUHU216HW,2013-11-10 09:12:00,
2013-11-10 02:13:00,36.4,27.5,29.90,ESE,113,0.7,2.0,70,0.00,,,0.00,WUHU216HW,2013-11-10 09:13:00,
2013-11-10 02:15:00,36.4,27.5,29.90,ESE,113,0.7,2.0,70,0.00,,,0.00,WUHU216HW,2013-11-10 09:15:00,
2013-11-10 02:16:00,36.4,27.5,29.90,ESE,113,0.4,1.1,70,0.00,,,0.00,WUHU216HW,2013-11-10 09:16:00,
2013-11-10 02:18:00,36.4,27.5,29.90,ESE,113,1.8,2.0,70,0.00,,,0.00,WUHU216HW,2013-11-10 09:18:00,
2013-11-10 02:20:00,36.4,27.5,29.90,ESE,113,1.6,2.0,70,0.00,,,0.00,WUHU216HW,2013-11-10 09:20:00,
2013-11-10 02:21:00,36.4,27.5,29.90,ESE,113,1.1,2.0,70,0.00,,,0.00,WUHU216HW,2013-11-10 09:21:00,
2013-11-10 02:23:00,36.4,27.5,29.90,ESE,113,3.4,3.4,70,0.00,,,0.00,WUHU216HW,2013-11-10 09:23:00,
2013-11-10 02:24:00,36.4,27.5,29.90,ESE,113,3.1,3.4,70,0.00,,,0.00,WUHU216HW,2013-11-10 09:24:00,
2013-11-10 02:26:00,36.4,27.5,29.90,SSE,158,1.3,3.4,70,0.00,,,0.00,WUHU216HW,2013-11-10 09:26:00,
2013-11-10 02:27:00,36.4,27.5,29.90,SSE,158,1.3,3.4,70,0.00,,,0.00,WUHU216HW,2013-11-10 09:27:00,
2013-11-10 02:28:00,36.4,27.5,29.90,SSE,158,2.0,3.4,70,0.00,,,0.00,WUHU216HW,2013-11-10 09:28:00,
2013-11-10 02:29:00,36.2,27.4,29.90,SE,135,2.0,3.4,70,0.00,,,0.00,WUHU216HW,2013-11-10 09:29:00,
2013-11-10 02:31:00,36.2,27.4,29.90,SE,135,2.2,3.4,70,0.00,,,0.00,WUHU216HW,2013-11-10 09:31:00,
2013-11-10 02:32:00,36.2,27.4,29.90,SE,135,1.6,3.4,70,0.00,,,0.00,WUHU216HW,2013-11-10 09:32:00,
2013-11-10 02:33:00,36.2,27.4,29.90,SSE,158,1.6,3.4,70,0.00,,,0.00,WUHU216HW,2013-11-10 09:33:00,
2013-11-10 02:35:00,36.2,27.4,29.90,SSE,158,0.9,2.5,70,0.00,,,0.00,WUHU216HW,2013-11-10 09:35:00,
2013-11-10 02:36:00,36.2,27.4,29.90,SSW,203,0.7,2.5,70,0.00,,,0.00,WUHU216HW,2013-11-10 09:36:00,
2013-11-10 02:37:00,36.2,27.4,29.90,SSW,203,0.4,2.5,70,0.00,,,0.00,WUHU216HW,2013-11-10 09:37:00,
2013-11-10 02:39:00,36.2,27.4,29.90,SSW,203,0.4,2.5,70,0.00,,,0.00,WUHU216HW,2013-11-10 09:39:00,
2013-11-10 02:40:00,36.2,27.4,29.90,SE,135,0.7,2.5,70,0.00,,,0.00,WUHU216HW,2013-11-10 09:40:00,
2013-11-10 02:41:00,36.2,27.4,29.90,SE,135,1.8,2.0,70,0.00,,,0.00,WUHU216HW,2013-11-10 09:41:00,
2013-11-10 02:42:00,36.2,27.4,29.90,SE,135,1.8,2.0,70,0.00,,,0.00,WUHU216HW,2013-11-10 09:42:00,
2013-11-10 02:44:00,36.2,27.4,29.90,ESE,113,2.5,2.7,70,0.00,,,0.00,WUHU216HW,2013-11-10 09:44:00,
2013-11-10 02:45:00,36.2,27.0,29.90,SE,135,0.4,2.7,69,0.00,,,0.00,WUHU216HW,2013-11-10 09:45:00,
2013-11-10 02:47:00,36.0,26.8,29.90,SE,135,1.6,2.7,69,0.00,,,0.00,WUHU216HW,2013-11-10 09:47:00,
2013-11-10 02:48:00,36.0,26.8,29.90,ESE,113,0.4,2.7,69,0.00,,,0.00,WUHU216HW,2013-11-10 09:48:00,
2013-11-10 02:49:00,36.0,27.2,29.90,SE,135,0.2,2.7,70,0.00,,,0.00,WUHU216HW,2013-11-10 09:49:00,
2013-11-10 02:50:00,36.0,27.2,29.90,SE,135,0.4,2.7,70,0.00,,,0.00,WUHU216HW,2013-11-10 09:50:00,
2013-11-10 02:52:00,36.0,26.8,29.90,SE,135,0.2,2.7,69,0.00,,,0.00,WUHU216HW,2013-11-10 09:52:00,
2013-11-10 02:53:00,36.0,27.2,29.90,WSW,248,0.9,2.5,70,0.00,,,0.00,WUHU216HW,2013-11-10 09:53:00,
2013-11-10 02:54:00,35.8,27.0,29.90,WSW,248,0.4,1.8,70,0.00,,,0.00,WUHU216HW,2013-11-10 09:54:00,
2013-11-10 02:55:00,35.6,26.8,29.90,WSW,248,0.0,1.6,70,0.00,,,0.00,WUHU216HW,2013-11-10 09:55:00,
2013-11-10 02:57:00,35.6,26.8,29.90,WSW,248,0.0,0.9,70,0.00,,,0.00,WUHU216HW,2013-11-10 09:57:00,
2013-11-10 02:59:00,35.6,26.8,29.90,WSW,248,1.3,1.8,70,0.00,,,0.00,WUHU216HW,2013-11-10 09:59:00,
2013-11-10 03:01:00,35.5,26.3,29.90,SW,225,0.9,1.8,69,0.00,,,0.00,WUHU216HW,2013-11-10 10:01:00,
2013-11-10 03:02:00,35.5,26.6,29.90,SW,225,0.7,1.8,70,0.00,,,0.00,WUHU216HW,2013-11-10 10:02:00,
2013-11-10 03:03:00,35.5,26.6,29.90,SW,225,1.1,1.8,70,0.00,,,0.00,WUHU216HW,2013-11-10 10:03:00,
2013-11-10 03:04:00,35.5,26.6,29.90,SW,225,0.9,1.8,70,0.00,,,0.00,WUHU216HW,2013-11-10 10:04:00,
2013-11-10 03:06:00,35.3,26.5,29.90,West,270,1.6,1.8,70,0.00,,,0.00,WUHU216HW,2013-11-10 10:06:00,
2013-11-10 03:07:00,35.3,26.5,29.90,West,270,2.0,2.0,70,0.00,,,0.00,WUHU216HW,2013-11-10 10:07:00,
2013-11-10 03:08:00,35.3,26.5,29.90,WSW,248,1.8,2.0,70,0.00,,,0.00,WUHU216HW,2013-11-10 10:08:00,
2013-11-10 03:09:00,35.3,26.5,29.90,WSW,248,3.4,3.4,70,0.00,,,0.00,WUHU216HW,2013-11-10 10:09:00,
2013-11-10 03:12:00,34.9,26.5,29.90,SW,225,0.2,3.4,71,0.00,,,0.00,WUHU216HW,2013-11-10 10:12:00,
2013-11-10 03:13:00,34.9,26.5,29.90,SW,225,0.2,3.4,71,0.00,,,0.00,WUHU216HW,2013-11-10 10:13:00,
2013-11-10 03:14:00,35.1,26.7,29.90,SW,225,0.0,3.4,71,0.00,,,0.00,WUHU216HW,2013-11-10 10:14:00,
2013-11-10 03:15:00,35.1,26.7,29.90,SW,225,0.0,3.4,71,0.00,,,0.00,WUHU216HW,2013-11-10 10:15:00,
2013-11-10 03:17:00,35.1,26.7,29.90,West,270,1.8,3.4,71,0.00,,,0.00,WUHU216HW,2013-11-10 10:17:00,
2013-11-10 03:18:00,35.1,26.7,29.90,West,270,1.8,3.4,71,0.00,,,0.00,WUHU216HW,2013-11-10 10:18:00,
2013-11-10 03:19:00,35.1,26.7,29.90,West,270,1.1,3.4,71,0.00,,,0.00,WUHU216HW,2013-11-10 10:19:00,
2013-11-10 03:20:00,34.9,26.5,29.90,West,270,0.7,1.8,71,0.00,,,0.00,WUHU216HW,2013-11-10 10:20:00,
2013-11-10 03:23:00,34.9,26.5,29.90,SW,225,1.1,1.8,71,0.00,,,0.00,WUHU216HW,2013-11-10 10:23:00,
2013-11-10 03:24:00,34.9,26.5,29.90,WSW,248,2.5,2.5,71,0.00,,,0.00,WUHU216HW,2013-11-10 10:24:00,
2013-11-10 03:25:00,34.9,26.5,29.90,West,270,1.8,2.5,71,0.00,,,0.00,WUHU216HW,2013-11-10 10:25:00,
2013-11-10 03:28:00,34.9,26.5,29.90,West,270,0.4,2.5,71,0.00,,,0.00,WUHU216HW,2013-11-10 10:28:00,
2013-11-10 03:29:00,34.9,26.5,29.90,SW,225,0.4,2.5,71,0.00,,,0.00,WUHU216HW,2013-11-10 10:29:00,
2013-11-10 03:30:00,34.9,26.5,29.90,SW,225,1.3,2.5,71,0.00,,,0.00,WUHU216HW,2013-11-10 10:30:00,
2013-11-10 03:33:00,34.9,26.5,29.90,West,270,1.8,3.1,71,0.00,,,0.00,WUHU216HW,2013-11-10 10:33:00,
2013-11-10 03:34:00,34.9,26.5,29.90,West,270,0.4,3.1,71,0.00,,,0.00,WUHU216HW,2013-11-10 10:34:00,
2013-11-10 03:35:00,34.9,26.5,29.90,West,270,0.2,3.1,71,0.00,,,0.00,WUHU216HW,2013-11-10 10:35:00,
2013-11-10 03:36:00,34.9,26.5,29.90,West,270,0.0,3.1,71,0.00,,,0.00,WUHU216HW,2013-11-10 10:36:00,
2013-11-10 03:38:00,35.1,26.3,29.90,West,270,0.9,3.1,70,0.00,,,0.00,WUHU216HW,2013-11-10 10:38:00,
2013-11-10 03:39:00,35.3,26.5,29.90,WNW,293,1.8,3.1,70,0.00,,,0.00,WUHU216HW,2013-11-10 10:39:00,
2013-11-10 03:40:00,35.3,26.5,29.90,NW,315,2.2,3.1,70,0.00,,,0.00,WUHU216HW,2013-11-10 10:40:00,
2013-11-10 03:41:00,35.3,26.5,29.90,NW,315,2.5,3.1,70,0.00,,,0.00,WUHU216HW,2013-11-10 10:41:00,
2013-11-10 03:43:00,35.5,26.6,29.90,NNW,338,1.8,2.7,70,0.00,,,0.00,WUHU216HW,2013-11-10 10:43:00,
2013-11-10 03:44:00,35.5,26.6,29.90,NNW,338,1.8,2.7,70,0.00,,,0.00,WUHU216HW,2013-11-10 10:44:00,
2013-11-10 03:45:00,35.5,26.6,29.90,NNW,338,1.3,2.7,70,0.00,,,0.00,WUHU216HW,2013-11-10 10:45:00,
2013-11-10 03:46:00,35.5,26.3,29.90,NNW,338,1.6,2.7,69,0.00,,,0.00,WUHU216HW,2013-11-10 10:46:00,
2013-11-10 03:47:00,35.6,26.5,29.90,NNW,338,0.4,2.7,69,0.00,,,0.00,WUHU216HW,2013-11-10 10:47:00,
2013-11-10 03:48:00,35.6,26.8,29.90,NNW,338,1.1,2.7,70,0.00,,,0.00,WUHU216HW,2013-11-10 10:48:00,
2013-11-10 03:49:00,35.6,26.5,29.90,NNW,338,1.3,2.7,69,0.00,,,0.00,WUHU216HW,2013-11-10 10:49:00,
2013-11-10 03:50:00,35.6,26.5,29.90,WNW,293,1.8,2.7,69,0.00,,,0.00,WUHU216HW,2013-11-10 10:50:00,
2013-11-10 03:52:00,35.6,26.8,29.90,West,270,2.5,2.7,70,0.00,,,0.00,WUHU216HW,2013-11-10 10:52:00,
2013-11-10 03:54:00,35.6,26.8,29.90,West,270,0.2,2.7,70,0.00,,,0.00,WUHU216HW,2013-11-10 10:54:00,
2013-11-10 03:55:00,35.6,26.8,29.90,NNE,23,0.2,2.7,70,0.00,,,0.00,WUHU216HW,2013-11-10 10:55:00,
2013-11-10 03:57:00,35.6,26.8,29.90,NNE,23,0.0,2.7,70,0.00,,,0.00,WUHU216HW,2013-11-10 10:57:00,
2013-11-10 03:59:00,35.6,26.5,29.90,WSW,248,3.6,3.6,69,0.00,,,0.00,WUHU216HW,2013-11-10 10:59:00,
2013-11-10 04:00:00,35.6,26.8,29.90,SW,225,2.5,3.6,70,0.00,,,0.00,WUHU216HW,2013-11-10 11:00:00,
2013-11-10 04:02:00,35.6,26.8,29.90,SW,225,0.0,3.6,70,0.00,,,0.00,WUHU216HW,2013-11-10 11:02:00,
2013-11-10 04:04:00,35.6,26.8,29.90,WSW,248,2.5,3.6,70,0.00,,,0.00,WUHU216HW,2013-11-10 11:04:00,
2013-11-10 04:05:00,35.6,26.8,29.90,WSW,248,2.7,3.6,70,0.00,,,0.00,WUHU216HW,2013-11-10 11:05:00,
2013-11-10 04:06:00,35.6,26.8,29.90,WSW,248,1.1,3.6,70,0.00,,,0.00,WUHU216HW,2013-11-10 11:06:00,
2013-11-10 04:07:00,35.6,26.8,29.90,NNE,23,0.4,3.6,70,0.00,,,0.00,WUHU216HW,2013-11-10 11:07:00,
2013-11-10 04:08:00,35.6,26.8,29.90,NNE,23,0.4,3.6,70,0.00,,,0.00,WUHU216HW,2013-11-10 11:08:00,
2013-11-10 04:09:00,35.6,26.8,29.90,NNE,23,0.0,3.6,70,0.00,,,0.00,WUHU216HW,2013-11-10 11:09:00,
2013-11-10 04:10:00,35.6,26.8,29.90,NNE,23,0.0,2.7,70,0.00,,,0.00,WUHU216HW,2013-11-10 11:10:00,
2013-11-10 04:11:00,35.6,26.8,29.90,NNE,23,0.0,2.7,70,0.00,,,0.00,WUHU216HW,2013-11-10 11:11:00,
2013-11-10 04:12:00,35.6,26.8,29.90,NNE,23,0.0,2.7,70,0.00,,,0.00,WUHU216HW,2013-11-10 11:12:00,
2013-11-10 04:13:00,35.6,26.8,29.90,NNE,23,0.0,2.7,70,0.00,,,0.00,WUHU216HW,2013-11-10 11:13:00,
2013-11-10 04:14:00,35.6,26.8,29.90,NNE,23,0.4,2.7,70,0.00,,,0.00,WUHU216HW,2013-11-10 11:14:00,
2013-11-10 04:15:00,35.6,26.8,29.90,NNW,338,0.4,2.7,70,0.00,,,0.00,WUHU216HW,2013-11-10 11:15:00,
2013-11-10 04:16:00,35.5,26.6,29.90,NNW,338,0.0,1.1,70,0.00,,,0.00,WUHU216HW,2013-11-10 11:16:00,
2013-11-10 04:17:00,35.5,26.6,29.90,North,0,0.0,0.4,70,0.00,,,0.00,WUHU216HW,2013-11-10 11:17:00,
2013-11-10 04:18:00,35.5,26.6,29.90,NE,45,0.4,0.4,70,0.00,,,0.00,WUHU216HW,2013-11-10 11:18:00,
2013-11-10 04:19:00,35.5,26.6,29.90,East,90,0.2,0.4,70,0.00,,,0.00,WUHU216HW,2013-11-10 11:19:00,
2013-11-10 04:20:00,35.5,26.6,29.90,East,90,0.2,0.4,70,0.00,,,0.00,WUHU216HW,2013-11-10 11:20:00,
2013-11-10 04:21:00,35.5,26.6,29.90,East,90,0.0,0.4,70,0.00,,,0.00,WUHU216HW,2013-11-10 11:21:00,
2013-11-10 04:22:00,35.3,26.8,29.90,WSW,248,0.9,0.9,71,0.00,,,0.00,WUHU216HW,2013-11-10 11:22:00,
2013-11-10 04:23:00,35.3,26.8,29.90,WSW,248,0.9,0.9,71,0.00,,,0.00,WUHU216HW,2013-11-10 11:23:00,
2013-11-10 04:24:00,35.3,26.8,29.90,WSW,248,0.7,0.9,71,0.00,,,0.00,WUHU216HW,2013-11-10 11:24:00,
2013-11-10 04:25:00,35.1,26.7,29.90,WSW,248,0.4,0.9,71,0.00,,,0.00,WUHU216HW,2013-11-10 11:25:00,
2013-11-10 04:26:00,34.9,26.5,29.90,WSW,248,0.4,0.9,71,0.00,,,0.00,WUHU216HW,2013-11-10 11:26:00,
2013-11-10 04:27:00,34.9,26.5,29.90,WSW,248,0.4,0.9,71,0.00,,,0.00,WUHU216HW,2013-11-10 11:27:00,
2013-11-10 04:28:00,34.7,26.3,29.90,WSW,248,0.7,0.9,71,0.00,,,0.00,WUHU216HW,2013-11-10 11:28:00,
2013-11-10 04:29:00,34.7,26.3,29.90,West,270,2.0,2.0,71,0.00,,,0.00,WUHU216HW,2013-11-10 11:29:00,
2013-11-10 04:31:00,34.6,26.1,29.90,West,270,1.6,2.5,71,0.00,,,0.00,WUHU216HW,2013-11-10 11:31:00,
2013-11-10 04:32:00,34.4,25.9,29.90,West,270,0.2,2.5,71,0.00,,,0.00,WUHU216HW,2013-11-10 11:32:00,
2013-11-10 04:33:00,34.4,25.9,29.90,West,270,0.0,2.5,71,0.00,,,0.00,WUHU216HW,2013-11-10 11:33:00,
2013-11-10 04:34:00,34.4,25.9,29.90,West,270,0.2,2.5,71,0.00,,,0.00,WUHU216HW,2013-11-10 11:34:00,
2013-11-10 04:35:00,34.4,25.9,29.90,West,270,1.6,2.5,71,0.00,,,0.00,WUHU216HW,2013-11-10 11:35:00,
2013-11-10 04:36:00,34.2,25.8,29.91,West,270,5.4,5.4,71,0.00,,,0.00,WUHU216HW,2013-11-10 11:36:00,
2013-11-10 04:38:00,34.0,25.6,29.90,NW,315,3.1,5.4,71,0.00,,,0.00,WUHU216HW,2013-11-10 11:38:00,
2013-11-10 04:40:00,33.8,25.4,29.90,WNW,293,3.6,5.4,71,0.00,,,0.00,WUHU216HW,2013-11-10 11:40:00,
2013-11-10 04:41:00,33.8,25.4,29.90,WSW,248,3.4,5.4,71,0.00,,,0.00,WUHU216HW,2013-11-10 11:41:00,
2013-11-10 04:43:00,33.8,25.4,29.90,North,0,0.4,5.4,71,0.00,,,0.00,WUHU216HW,2013-11-10 11:43:00,
2013-11-10 04:45:00,33.8,25.4,29.90,SW,225,0.4,5.4,71,0.00,,,0.00,WUHU216HW,2013-11-10 11:45:00,
2013-11-10 04:46:00,33.8,25.4,29.90,SW,225,2.5,4.9,71,0.00,,,0.00,WUHU216HW,2013-11-10 11:46:00,
2013-11-10 04:47:00,33.8,25.4,29.90,WSW,248,3.4,4.5,71,0.00,,,0.00,WUHU216HW,2013-11-10 11:47:00,
2013-11-10 04:48:00,33.8,25.7,29.90,WSW,248,1.8,4.5,72,0.00,,,0.00,WUHU216HW,2013-11-10 11:48:00,
2013-11-10 04:49:00,33.7,25.2,29.90,WSW,248,0.7,4.5,71,0.00,,,0.00,WUHU216HW,2013-11-10 11:49:00,
2013-11-10 04:50:00,33.7,25.2,29.90,WSW,248,0.9,4.5,71,0.00,,,0.00,WUHU216HW,2013-11-10 11:50:00,
2013-11-10 04:51:00,33.5,25.0,29.90,WSW,248,1.1,3.8,71,0.00,,,0.00,WUHU216HW,2013-11-10 11:51:00,
2013-11-10 04:52:00,33.5,25.0,29.90,WSW,248,1.1,3.8,71,0.00,,,0.00,WUHU216HW,2013-11-10 11:52:00,
2013-11-10 04:53:00,33.5,25.0,29.90,WSW,248,3.8,3.8,71,0.00,,,0.00,WUHU216HW,2013-11-10 11:53:00,
2013-11-10 04:54:00,33.5,25.0,29.90,WSW,248,2.9,3.8,71,0.00,,,0.00,WUHU216HW,2013-11-10 11:54:00,
2013-11-10 04:56:00,33.5,25.0,29.90,WSW,248,0.9,3.8,71,0.00,,,0.00,WUHU216HW,2013-11-10 11:56:00,
2013-11-10 04:57:00,33.5,25.0,29.90,WSW,248,0.4,3.8,71,0.00,,,0.00,WUHU216HW,2013-11-10 11:57:00,
2013-11-10 04:59:00,33.3,25.2,29.91,WSW,248,6.3,6.3,72,0.00,,,0.00,WUHU216HW,2013-11-10 11:59:00,
2013-11-10 05:01:00,33.1,25.0,29.91,WSW,248,4.5,6.3,72,0.00,,,0.00,WUHU216HW,2013-11-10 12:01:00,
2013-11-10 05:02:00,33.1,25.0,29.90,WSW,248,0.4,6.3,72,0.00,,,0.00,WUHU216HW,2013-11-10 12:02:00,
2013-11-10 05:04:00,33.1,25.0,29.90,WSW,248,2.5,6.3,72,0.00,,,0.00,WUHU216HW,2013-11-10 12:04:00,
2013-11-10 05:05:00,32.9,24.8,29.90,WSW,248,4.7,6.3,72,0.00,,,0.00,WUHU216HW,2013-11-10 12:05:00,
2013-11-10 05:06:00,32.9,24.8,29.91,WSW,248,5.1,6.3,72,0.00,,,0.00,WUHU216HW,2013-11-10 12:06:00,
2013-11-10 05:07:00,32.9,24.8,29.90,SSW,203,1.1,6.3,72,0.00,,,0.00,WUHU216HW,2013-11-10 12:07:00,
2013-11-10 05:09:00,32.9,25.2,29.90,SW,225,2.0,6.3,73,0.00,,,0.00,WUHU216HW,2013-11-10 12:09:00,
2013-11-10 05:10:00,32.9,25.2,29.90,WSW,248,5.4,5.4,73,0.00,,,0.00,WUHU216HW,2013-11-10 12:10:00,
2013-11-10 05:11:00,32.9,25.5,29.90,WSW,248,4.9,5.8,74,0.00,,,0.00,WUHU216HW,2013-11-10 12:11:00,
2013-11-10 05:12:00,32.9,25.8,29.90,WSW,248,3.4,5.8,75,0.00,,,0.00,WUHU216HW,2013-11-10 12:12:00,
2013-11-10 05:13:00,32.9,25.5,29.90,WSW,248,2.2,5.8,74,0.00,,,0.00,WUHU216HW,2013-11-10 12:13:00,
2013-11-10 05:15:00,32.8,25.4,29.90,SW,225,3.8,5.8,74,0.00,,,0.00,WUHU216HW,2013-11-10 12:15:00,
2013-11-10 05:16:00,32.8,25.4,29.90,SW,225,1.8,5.8,74,0.00,,,0.00,WUHU216HW,2013-11-10 12:16:00,
2013-11-10 05:17:00,32.8,25.4,29.90,WSW,248,2.2,5.8,74,0.00,,,0.00,WUHU216HW,2013-11-10 12:17:00,
2013-11-10 05:18:00,32.8,25.4,29.90,WSW,248,2.9,5.8,74,0.00,,,0.00,WUHU216HW,2013-11-10 12:18:00,
2013-11-10 05:20:00,32.9,25.5,29.90,SW,225,1.8,5.8,74,0.00,,,0.00,WUHU216HW,2013-11-10 12:20:00,
2013-11-10 05:21:00,32.9,25.5,29.90,SW,225,1.3,5.8,74,0.00,,,0.00,WUHU216HW,2013-11-10 12:21:00,
2013-11-10 05:22:00,32.9,25.2,29.90,SW,225,2.7,4.0,73,0.00,,,0.00,WUHU216HW,2013-11-10 12:22:00,
2013-11-10 05:23:00,33.1,25.7,29.90,SW,225,2.5,4.0,74,0.00,,,0.00,WUHU216HW,2013-11-10 12:23:00,
2013-11-10 05:25:00,33.1,25.7,29.90,SW,225,3.8,3.8,74,0.00,,,0.00,WUHU216HW,2013-11-10 12:25:00,
2013-11-10 05:26:00,33.3,25.8,29.90,WSW,248,4.7,4.7,74,0.00,,,0.00,WUHU216HW,2013-11-10 12:26:00,
2013-11-10 05:27:00,33.3,25.8,29.90,WSW,248,4.9,4.9,74,0.00,,,0.00,WUHU216HW,2013-11-10 12:27:00,
2013-11-10 05:28:00,33.5,26.3,29.90,WSW,248,4.3,5.6,75,0.00,,,0.00,WUHU216HW,2013-11-10 12:28:00,
2013-11-10 05:31:00,33.5,26.0,29.90,SW,225,0.4,5.6,74,0.00,,,0.00,WUHU216HW,2013-11-10 12:31:00,
2013-11-10 05:32:00,33.5,26.0,29.90,SSW,203,1.8,5.6,74,0.00,,,0.00,WUHU216HW,2013-11-10 12:32:00,
2013-11-10 05:33:00,33.5,26.0,29.90,SW,225,2.0,5.6,74,0.00,,,0.00,WUHU216HW,2013-11-10 12:33:00,
2013-11-10 05:34:00,33.5,26.0,29.90,SW,225,2.5,5.6,74,0.00,,,0.00,WUHU216HW,2013-11-10 12:34:00,
2013-11-10 05:36:00,33.7,26.2,29.90,SSW,203,3.8,5.6,74,0.00,,,0.00,WUHU216HW,2013-11-10 12:36:00,
2013-11-10 05:37:00,33.7,26.2,29.90,SSW,203,2.2,5.6,74,0.00,,,0.00,WUHU216HW,2013-11-10 12:37:00,
2013-11-10 05:38:00,33.7,26.2,29.90,SSW,203,1.8,5.6,74,0.00,,,0.00,WUHU216HW,2013-11-10 12:38:00,
2013-11-10 05:39:00,33.7,26.2,29.90,South,180,1.3,4.3,74,0.00,,,0.00,WUHU216HW,2013-11-10 12:39:00,
2013-11-10 05:41:00,33.8,26.0,29.90,SW,225,1.1,4.3,73,0.00,,,0.00,WUHU216HW,2013-11-10 12:41:00,
2013-11-10 05:42:00,34.0,26.2,29.90,WSW,248,2.2,4.3,73,0.00,,,0.00,WUHU216HW,2013-11-10 12:42:00,
2013-11-10 05:43:00,34.0,26.2,29.90,WSW,248,2.5,4.3,73,0.00,,,0.00,WUHU216HW,2013-11-10 12:43:00,
2013-11-10 05:44:00,34.0,26.2,29.90,SW,225,0.7,4.3,73,0.00,,,0.00,WUHU216HW,2013-11-10 12:44:00,
2013-11-10 05:45:00,34.0,26.2,29.90,SW,225,0.7,4.3,73,0.00,,,0.00,WUHU216HW,2013-11-10 12:45:00,
2013-11-10 05:46:00,34.2,26.4,29.90,SE,135,0.9,3.1,73,0.00,,,0.00,WUHU216HW,2013-11-10 12:46:00,
2013-11-10 05:47:00,34.2,26.4,29.90,SE,135,0.9,3.1,73,0.00,,,0.00,WUHU216HW,2013-11-10 12:47:00,
2013-11-10 05:48:00,34.2,26.4,29.90,WSW,248,3.4,3.4,73,0.00,,,0.00,WUHU216HW,2013-11-10 12:48:00,
2013-11-10 05:50:00,34.2,26.6,29.90,WSW,248,3.6,4.5,74,0.00,,,0.00,WUHU216HW,2013-11-10 12:50:00,
2013-11-10 05:51:00,34.2,26.6,29.90,WSW,248,1.1,4.5,74,0.00,,,0.00,WUHU216HW,2013-11-10 12:51:00,
2013-11-10 05:52:00,34.2,26.6,29.90,WSW,248,1.1,4.5,74,0.00,,,0.00,WUHU216HW,2013-11-10 12:52:00,
2013-11-10 05:55:00,34.4,26.6,29.90,SE,135,1.1,4.5,73,0.00,,,0.00,WUHU216HW,2013-11-10 12:55:00,
2013-11-10 05:57:00,34.4,26.6,29.90,South,180,2.0,4.5,73,0.00,,,0.00,WUHU216HW,2013-11-10 12:57:00,
2013-11-10 05:58:00,34.6,26.7,29.90,South,180,2.0,4.5,73,0.00,,,0.00,WUHU216HW,2013-11-10 12:58:00,
2013-11-10 06:00:00,34.6,26.7,29.90,SW,225,0.0,3.6,73,0.00,,,0.00,WUHU216HW,2013-11-10 13:00:00,
2013-11-10 06:02:00,34.6,26.7,29.90,SW,225,1.8,2.5,73,0.00,,,0.00,WUHU216HW,2013-11-10 13:02:00,
2013-11-10 06:03:00,34.6,26.7,29.90,SW,225,0.2,2.5,73,0.00,,,0.00,WUHU216HW,2013-11-10 13:03:00,
2013-11-10 06:05:00,34.7,26.9,29.90,SSW,203,0.4,2.5,73,0.00,,,0.00,WUHU216HW,2013-11-10 13:05:00,
2013-11-10 06:06:00,34.7,26.9,29.90,SW,225,1.8,2.5,73,0.00,,,0.00,WUHU216HW,2013-11-10 13:06:00,
2013-11-10 06:07:00,34.7,26.9,29.90,SW,225,1.8,2.5,73,0.00,,,0.00,WUHU216HW,2013-11-10 13:07:00,
2013-11-10 06:08:00,34.7,26.9,29.90,SW,225,0.9,2.5,73,0.00,,,0.00,WUHU216HW,2013-11-10 13:08:00,
2013-11-10 06:11:00,34.7,26.9,29.90,SSW,203,0.7,2.5,73,0.00,,,0.00,WUHU216HW,2013-11-10 13:11:00,
2013-11-10 06:12:00,34.7,26.9,29.90,SSW,203,0.0,2.2,73,0.00,,,0.00,WUHU216HW,2013-11-10 13:12:00,
2013-11-10 06:13:00,34.7,26.9,29.90,SSW,203,0.2,2.2,73,0.00,,,0.00,WUHU216HW,2013-11-10 13:13:00,
2013-11-10 06:14:00,34.9,27.1,29.90,SSW,203,0.4,2.2,73,0.00,,,0.00,WUHU216HW,2013-11-10 13:14:00,
2013-11-10 06:16:00,34.9,27.1,29.90,SSW,203,0.0,2.2,73,0.00,,,0.00,WUHU216HW,2013-11-10 13:16:00,
2013-11-10 06:17:00,34.7,26.9,29.90,SW,225,0.0,2.2,73,0.00,,,0.00,WUHU216HW,2013-11-10 13:17:00,
2013-11-10 06:18:00,34.7,26.9,29.90,WSW,248,3.8,3.8,73,0.00,,,0.00,WUHU216HW,2013-11-10 13:18:00,
2013-11-10 06:19:00,34.7,26.9,29.90,WSW,248,3.8,3.8,73,0.00,,,0.00,WUHU216HW,2013-11-10 13:19:00,
2013-11-10 06:21:00,34.6,26.7,29.90,WSW,248,0.0,3.8,73,0.00,,,0.00,WUHU216HW,2013-11-10 13:21:00,
2013-11-10 06:22:00,34.6,26.7,29.90,WSW,248,0.2,3.8,73,0.00,,,0.00,WUHU216HW,2013-11-10 13:22:00,
2013-11-10 06:23:00,34.6,26.7,29.90,WSW,248,1.1,3.8,73,0.00,,,0.00,WUHU216HW,2013-11-10 13:23:00,
2013-11-10 06:24:00,34.4,26.6,29.90,WSW,248,0.7,3.8,73,0.00,,,0.00,WUHU216HW,2013-11-10 13:24:00,
2013-11-10 06:26:00,34.4,26.6,29.90,West,270,2.5,3.8,73,0.00,,,0.00,WUHU216HW,2013-11-10 13:26:00,
2013-11-10 06:27:00,34.4,26.6,29.90,West,270,3.4,3.8,73,0.00,,,0.00,WUHU216HW,2013-11-10 13:27:00,
2013-11-10 06:28:00,34.4,26.6,29.90,West,270,4.0,4.0,73,0.00,,,0.00,WUHU216HW,2013-11-10 13:28:00,
2013-11-10 06:29:00,34.2,26.4,29.90,West,270,4.0,4.0,73,0.00,,,0.00,WUHU216HW,2013-11-10 13:29:00,
2013-11-10 06:32:00,34.2,26.4,29.90,WSW,248,0.7,4.0,73,0.00,,,0.00,WUHU216HW,2013-11-10 13:32:00,
2013-11-10 06:33:00,34.2,26.4,29.90,WSW,248,0.4,4.0,73,0.00,,,0.00,WUHU216HW,2013-11-10 13:33:00,
2013-11-10 06:34:00,34.2,26.4,29.90,WSW,248,0.9,4.0,73,0.00,,,0.00,WUHU216HW,2013-11-10 13:34:00,
2013-11-10 06:37:00,34.2,26.4,29.90,WSW,248,2.5,5.6,73,0.00,,,0.00,WUHU216HW,2013-11-10 13:37:00,
2013-11-10 06:38:00,34.0,26.2,29.90,WSW,248,1.3,5.6,73,0.00,,,0.00,WUHU216HW,2013-11-10 13:38:00,
2013-11-10 06:39:00,34.0,26.2,29.90,WSW,248,1.1,5.6,73,0.00,,,0.00,WUHU216HW,2013-11-10 13:39:00,
2013-11-10 06:42:00,34.0,26.5,29.90,WSW,248,4.0,5.8,74,0.00,,,0.00,WUHU216HW,2013-11-10 13:42:00,
2013-11-10 06:43:00,33.8,26.3,29.90,WSW,248,2.0,5.8,74,0.00,,,0.00,WUHU216HW,2013-11-10 13:43:00,
2013-11-10 06:44:00,34.0,26.2,29.90,SSW,203,1.3,5.8,73,0.00,,,0.00,WUHU216HW,2013-11-10 13:44:00,
2013-11-10 06:47:00,33.8,26.3,29.90,West,270,1.8,5.8,74,0.00,,,0.00,WUHU216HW,2013-11-10 13:47:00,
2013-11-10 06:48:00,34.0,26.5,29.90,West,270,1.8,5.8,74,0.00,,,0.00,WUHU216HW,2013-11-10 13:48:00,
2013-11-10 06:49:00,34.0,26.5,29.90,WSW,248,0.7,5.8,74,0.00,,,0.00,WUHU216HW,2013-11-10 13:49:00,
2013-11-10 06:50:00,34.0,26.5,29.90,SSW,203,1.1,5.8,74,0.00,,,0.00,WUHU216HW,2013-11-10 13:50:00,
2013-11-10 06:53:00,34.0,26.5,29.90,SW,225,2.2,4.7,74,0.00,,,0.00,WUHU216HW,2013-11-10 13:53:00,
2013-11-10 06:54:00,34.0,26.5,29.90,SW,225,2.5,4.7,74,0.00,,,0.00,WUHU216HW,2013-11-10 13:54:00,
2013-11-10 06:55:00,34.0,26.2,29.90,SW,225,2.0,4.7,73,0.00,,,0.00,WUHU216HW,2013-11-10 13:55:00,
2013-11-10 06:58:00,34.2,26.4,29.90,WSW,248,2.5,3.4,73,0.00,,,0.00,WUHU216HW,2013-11-10 13:58:00,
2013-11-10 06:59:00,34.0,26.2,29.90,WSW,248,0.4,3.4,73,0.00,,,0.00,WUHU216HW,2013-11-10 13:59:00,
2013-11-10 07:00:00,34.0,26.2,29.89,SE,135,0.4,3.4,73,0.00,,,0.00,WUHU216HW,2013-11-10 14:00:00,
2013-11-10 07:03:00,34.0,26.2,29.89,SW,225,1.1,3.4,73,0.00,,,0.00,WUHU216HW,2013-11-10 14:03:00,
2013-11-10 07:04:00,34.2,26.4,29.90,SW,225,1.6,3.4,73,0.00,,,0.00,WUHU216HW,2013-11-10 14:04:00,
2013-11-10 07:06:00,34.0,26.2,29.89,SW,225,1.8,3.4,73,0.00,,,0.00,WUHU216HW,2013-11-10 14:06:00,
2013-11-10 07:08:00,34.0,26.2,29.89,WSW,248,3.1,3.1,73,0.00,,,0.00,WUHU216HW,2013-11-10 14:08:00,
2013-11-10 07:09:00,34.0,26.2,29.89,WSW,248,3.4,3.4,73,0.00,,,0.00,WUHU216HW,2013-11-10 14:09:00,
2013-11-10 07:11:00,33.8,26.0,29.90,SW,225,3.8,4.0,73,0.00,,,0.00,WUHU216HW,2013-11-10 14:11:00,
2013-11-10 07:13:00,33.8,26.0,29.90,SW,225,3.4,4.0,73,0.00,,,0.00,WUHU216HW,2013-11-10 14:13:00,
2013-11-10 07:14:00,33.8,26.0,29.90,SW,225,2.5,4.0,73,0.00,,,0.00,WUHU216HW,2013-11-10 14:14:00,
2013-11-10 07:15:00,33.8,26.0,29.89,SW,225,2.5,4.0,73,0.00,,,0.00,WUHU216HW,2013-11-10 14:15:00,
2013-11-10 07:17:00,33.7,25.8,29.89,SW,225,1.1,4.0,73,0.00,,,0.00,WUHU216HW,2013-11-10 14:17:00,
2013-11-10 07:18:00,33.7,25.8,29.89,SW,225,1.8,4.0,73,0.00,,,0.00,WUHU216HW,2013-11-10 14:18:00,
2013-11-10 07:19:00,33.7,25.8,29.89,SW,225,2.7,4.0,73,0.00,,,0.00,WUHU216HW,2013-11-10 14:19:00,
2013-11-10 07:20:00,33.7,25.8,29.90,SW,225,2.9,4.0,73,0.00,,,0.00,WUHU216HW,2013-11-10 14:20:00,
2013-11-10 07:23:00,33.7,25.8,29.89,SW,225,1.8,3.4,73,0.00,,,0.00,WUHU216HW,2013-11-10 14:23:00,
2013-11-10 07:24:00,33.7,25.8,29.89,WSW,248,1.1,2.9,73,0.00,,,0.00,WUHU216HW,2013-11-10 14:24:00,
2013-11-10 07:26:00,33.5,25.7,29.89,WSW,248,3.6,3.6,73,0.00,,,0.00,WUHU216HW,2013-11-10 14:26:00,
2013-11-10 07:28:00,33.5,26.0,29.90,WSW,248,5.1,6.7,74,0.00,,,0.00,WUHU216HW,2013-11-10 14:28:00,
2013-11-10 07:29:00,33.5,26.3,29.90,West,270,2.2,6.7,75,0.00,,,0.00,WUHU216HW,2013-11-10 14:29:00,
2013-11-10 07:30:00,33.5,26.3,29.89,West,270,0.4,6.7,75,0.00,,,0.00,WUHU216HW,2013-11-10 14:30:00,
2013-11-10 07:31:00,33.5,26.0,29.89,West,270,0.4,6.7,74,0.00,,,0.00,WUHU216HW,2013-11-10 14:31:00,
2013-11-10 07:33:00,33.7,26.2,29.90,WSW,248,4.9,6.7,74,0.00,,,0.00,WUHU216HW,2013-11-10 14:33:00,
2013-11-10 07:34:00,33.7,26.2,29.90,WSW,248,5.4,6.7,74,0.00,,,0.00,WUHU216HW,2013-11-10 14:34:00,
2013-11-10 07:35:00,33.7,26.5,29.90,West,270,2.9,6.7,75,0.00,,,0.00,WUHU216HW,2013-11-10 14:35:00,
2013-11-10 07:36:00,33.7,26.5,29.90,West,270,1.1,6.7,75,0.00,,,0.00,WUHU216HW,2013-11-10 14:36:00,
2013-11-10 07:37:00,33.7,26.5,29.90,WSW,248,2.5,6.7,75,0.00,,,0.00,WUHU216HW,2013-11-10 14:37:00,
2013-11-10 07:39:00,33.8,26.6,29.90,SW,225,5.8,6.9,75,0.00,,,0.00,WUHU216HW,2013-11-10 14:39:00,
2013-11-10 07:40:00,33.8,27.0,29.90,ENE,68,0.4,6.9,76,0.00,,,0.00,WUHU216HW,2013-11-10 14:40:00,
2013-11-10 07:42:00,33.8,26.6,29.89,WNW,293,0.7,6.9,75,0.00,,,0.00,WUHU216HW,2013-11-10 14:42:00,
2013-11-10 07:44:00,34.0,26.8,29.90,WSW,248,5.4,6.9,75,0.00,,,0.00,WUHU216HW,2013-11-10 14:44:00,
2013-11-10 07:45:00,34.2,27.0,29.90,West,270,0.4,6.9,75,0.00,,,0.00,WUHU216HW,2013-11-10 14:45:00,
2013-11-10 07:46:00,34.2,27.0,29.90,ENE,68,1.8,6.9,75,0.00,,,0.00,WUHU216HW,2013-11-10 14:46:00,
2013-11-10 07:47:00,34.2,26.6,29.89,ENE,68,1.8,6.9,74,0.00,,,0.00,WUHU216HW,2013-11-10 14:47:00,
2013-11-10 07:48:00,34.2,26.6,29.89,West,270,0.2,6.9,74,0.00,,,0.00,WUHU216HW,2013-11-10 14:48:00,
2013-11-10 07:49:00,34.4,27.2,29.89,West,270,3.4,6.0,75,0.00,,,0.00,WUHU216HW,2013-11-10 14:49:00,
2013-11-10 07:50:00,34.6,27.4,29.89,WNW,293,1.8,6.0,75,0.00,,,0.00,WUHU216HW,2013-11-10 14:50:00,
2013-11-10 07:51:00,34.6,27.4,29.89,NNW,338,1.1,6.0,75,0.00,,,0.00,WUHU216HW,2013-11-10 14:51:00,
2013-11-10 07:53:00,34.6,27.0,29.88,NNE,23,0.7,6.0,74,0.00,,,0.00,WUHU216HW,2013-11-10 14:53:00,
2013-11-10 07:54:00,34.6,27.0,29.89,WSW,248,2.7,4.0,74,0.00,,,0.00,WUHU216HW,2013-11-10 14:54:00,
2013-11-10 07:55:00,34.6,27.0,29.89,WSW,248,2.7,4.0,74,0.00,,,0.00,WUHU216HW,2013-11-10 14:55:00,
2013-11-10 07:56:00,34.6,27.0,29.90,WSW,248,1.8,4.0,74,0.00,,,0.00,WUHU216HW,2013-11-10 14:56:00,
2013-11-10 07:58:00,34.6,27.0,29.89,WSW,248,0.4,4.0,74,0.00,,,0.00,WUHU216HW,2013-11-10 14:58:00,
2013-11-10 07:59:00,34.7,26.9,29.89,WSW,248,0.0,3.4,73,0.00,,,0.00,WUHU216HW,2013-11-10 14:59:00,
2013-11-10 08:00:00,34.7,26.9,29.89,WSW,248,0.0,3.4,73,0.00,,,0.00,WUHU216HW,2013-11-10 15:00:00,
2013-11-10 08:01:00,34.6,26.7,29.89,WSW,248,0.4,3.4,73,0.00,,,0.00,WUHU216HW,2013-11-10 15:01:00,
2013-11-10 08:03:00,34.6,26.7,29.89,WSW,248,1.8,3.4,73,0.00,,,0.00,WUHU216HW,2013-11-10 15:03:00,
2013-11-10 08:05:00,34.6,26.7,29.89,SW,225,0.7,3.4,73,0.00,,,0.00,WUHU216HW,2013-11-10 15:05:00,
2013-11-10 08:06:00,34.6,26.7,29.89,SSW,203,0.0,2.0,73,0.00,,,0.00,WUHU216HW,2013-11-10 15:06:00,
2013-11-10 08:08:00,34.6,26.7,29.89,SW,225,0.0,2.0,73,0.00,,,0.00,WUHU216HW,2013-11-10 15:08:00,
2013-11-10 08:09:00,34.6,26.7,29.90,WSW,248,1.1,2.0,73,0.00,,,0.00,WUHU216HW,2013-11-10 15:09:00,
2013-11-10 08:10:00,34.6,27.0,29.90,West,270,4.3,4.3,74,0.00,,,0.00,WUHU216HW,2013-11-10 15:10:00,
2013-11-10 08:11:00,34.6,27.4,29.90,West,270,4.0,4.3,75,0.00,,,0.00,WUHU216HW,2013-11-10 15:11:00,
2013-11-10 08:13:00,34.4,26.8,29.89,West,270,0.0,4.3,74,0.00,,,0.00,WUHU216HW,2013-11-10 15:13:00,
2013-11-10 08:14:00,34.4,26.8,29.89,West,270,0.0,4.3,74,0.00,,,0.00,WUHU216HW,2013-11-10 15:14:00,
2013-11-10 08:16:00,34.4,26.8,29.90,WSW,248,1.1,4.3,74,0.00,,,0.00,WUHU216HW,2013-11-10 15:16:00,
2013-11-10 08:17:00,34.4,26.8,29.90,WSW,248,2.0,4.3,74,0.00,,,0.00,WUHU216HW,2013-11-10 15:17:00,
2013-11-10 08:18:00,34.4,26.8,29.90,WSW,248,1.8,4.3,74,0.00,,,0.00,WUHU216HW,2013-11-10 15:18:00,
2013-11-10 08:20:00,34.4,26.8,29.89,WSW,248,0.9,4.3,74,0.00,,,0.00,WUHU216HW,2013-11-10 15:20:00,
2013-11-10 08:21:00,34.4,26.8,29.89,WSW,248,0.4,2.5,74,0.00,,,0.00,WUHU216HW,2013-11-10 15:21:00,
2013-11-10 08:22:00,34.4,26.8,29.89,WSW,248,0.2,2.2,74,0.00,,,0.00,WUHU216HW,2013-11-10 15:22:00,
2013-11-10 08:23:00,34.4,26.8,29.89,WNW,293,0.9,2.2,74,0.00,,,0.00,WUHU216HW,2013-11-10 15:23:00,
2013-11-10 08:24:00,34.4,26.8,29.89,WNW,293,0.9,2.2,74,0.00,,,0.00,WUHU216HW,2013-11-10 15:24:00,
2013-11-10 08:25:00,34.6,27.0,29.89,West,270,1.6,2.2,74,0.00,,,0.00,WUHU216HW,2013-11-10 15:25:00,
2013-11-10 08:26:00,34.4,26.8,29.89,West,270,0.0,2.2,74,0.00,,,0.00,WUHU216HW,2013-11-10 15:26:00,
2013-11-10 08:27:00,34.4,26.8,29.89,West,270,0.0,2.2,74,0.00,,,0.00,WUHU216HW,2013-11-10 15:27:00,
2013-11-10 08:28:00,34.4,26.8,29.89,WSW,248,1.6,1.8,74,0.00,,,0.00,WUHU216HW,2013-11-10 15:28:00,
2013-11-10 08:29:00,34.4,26.8,29.90,West,270,2.7,2.7,74,0.00,,,0.00,WUHU216HW,2013-11-10 15:29:00,
2013-11-10 08:30:00,34.4,26.8,29.90,West,270,2.9,2.9,74,0.00,,,0.00,WUHU216HW,2013-11-10 15:30:00,
2013-11-10 08:31:00,34.4,27.2,29.89,West,270,2.7,3.4,75,0.00,,,0.00,WUHU216HW,2013-11-10 15:31:00,
2013-11-10 08:32:00,34.2,27.0,29.89,West,270,1.6,3.4,75,0.00,,,0.00,WUHU216HW,2013-11-10 15:32:00,
2013-11-10 08:33:00,34.2,26.6,29.89,WNW,293,0.4,3.4,74,0.00,,,0.00,WUHU216HW,2013-11-10 15:33:00,
2013-11-10 08:35:00,34.2,26.6,29.89,WNW,293,1.6,3.4,74,0.00,,,0.00,WUHU216HW,2013-11-10 15:35:00,
2013-11-10 08:37:00,34.2,27.0,29.89,West,270,2.7,3.4,75,0.00,,,0.00,WUHU216HW,2013-11-10 15:37:00,
2013-11-10 08:38:00,34.2,26.6,29.89,West,270,0.4,3.4,74,0.00,,,0.00,WUHU216HW,2013-11-10 15:38:00,
2013-11-10 08:40:00,34.2,26.6,29.89,West,270,0.0,3.4,74,0.00,,,0.00,WUHU216HW,2013-11-10 15:40:00,
2013-11-10 08:41:00,34.4,26.8,29.89,West,270,0.0,2.9,74,0.00,,,0.00,WUHU216HW,2013-11-10 15:41:00,
2013-11-10 08:42:00,34.4,26.8,29.88,West,270,0.0,2.7,74,0.00,,,0.00,WUHU216HW,2013-11-10 15:42:00,
2013-11-10 08:43:00,34.4,26.8,29.89,West,270,1.1,2.7,74,0.00,,,0.00,WUHU216HW,2013-11-10 15:43:00,
2013-11-10 08:45:00,34.4,26.8,29.89,WSW,248,2.9,2.9,74,0.00,,,0.00,WUHU216HW,2013-11-10 15:45:00,
2013-11-10 08:46:00,34.4,27.2,29.89,West,270,2.9,3.8,75,0.00,,,0.00,WUHU216HW,2013-11-10 15:46:00,
2013-11-10 08:47:00,34.4,27.2,29.89,West,270,2.5,3.8,75,0.00,,,0.00,WUHU216HW,2013-11-10 15:47:00,
2013-11-10 08:48:00,34.6,27.4,29.89,West,270,1.1,3.8,75,0.00,,,0.00,WUHU216HW,2013-11-10 15:48:00,
2013-11-10 08:49:00,34.6,27.4,29.89,West,270,0.7,3.8,75,0.00,,,0.00,WUHU216HW,2013-11-10 15:49:00,
2013-11-10 08:50:00,34.6,27.0,29.89,West,270,0.0,3.8,74,0.00,,,0.00,WUHU216HW,2013-11-10 15:50:00,
2013-11-10 08:51:00,34.6,27.0,29.89,West,270,0.7,3.8,74,0.00,,,0.00,WUHU216HW,2013-11-10 15:51:00,
2013-11-10 08:52:00,34.6,27.0,29.89,WSW,248,1.8,3.8,74,0.00,,,0.00,WUHU216HW,2013-11-10 15:52:00,
2013-11-10 08:53:00,34.6,27.0,29.89,WSW,248,2.0,3.8,74,0.00,,,0.00,WUHU216HW,2013-11-10 15:53:00,
2013-11-10 08:54:00,34.6,27.0,29.89,WSW,248,2.2,3.8,74,0.00,,,0.00,WUHU216HW,2013-11-10 15:54:00,
2013-11-10 08:55:00,34.7,27.2,29.88,WSW,248,0.9,2.9,74,0.00,,,0.00,WUHU216HW,2013-11-10 15:55:00,
2013-11-10 08:56:00,34.7,27.2,29.88,WSW,248,1.8,2.9,74,0.00,,,0.00,WUHU216HW,2013-11-10 15:56:00,
2013-11-10 08:57:00,34.7,27.2,29.88,WSW,248,1.8,2.5,74,0.00,,,0.00,WUHU216HW,2013-11-10 15:57:00,
2013-11-10 08:58:00,34.7,27.2,29.88,WSW,248,2.7,2.7,74,0.00,,,0.00,WUHU216HW,2013-11-10 15:58:00,
2013-11-10 08:59:00,34.9,27.7,29.88,West,270,2.5,2.7,75,0.00,,,0.00,WUHU216HW,2013-11-10 15:59:00,
2013-11-10 09:01:00,34.9,27.4,29.88,WSW,248,0.9,2.7,74,0.00,,,0.00,WUHU216HW,2013-11-10 16:01:00,
2013-11-10 09:02:00,34.9,27.4,29.88,WSW,248,0.9,2.7,74,0.00,,,0.00,WUHU216HW,2013-11-10 16:02:00,
2013-11-10 09:03:00,34.9,27.4,29.88,West,270,1.1,2.7,74,0.00,,,0.00,WUHU216HW,2013-11-10 16:03:00,
2013-11-10 09:04:00,35.1,27.5,29.88,West,270,1.6,2.7,74,0.00,,,0.00,WUHU216HW,2013-11-10 16:04:00,
2013-11-10 09:06:00,35.1,27.3,29.88,WNW,293,2.9,2.9,73,0.00,,,0.00,WUHU216HW,2013-11-10 16:06:00,
2013-11-10 09:07:00,35.3,27.5,29.88,WNW,293,3.8,3.8,73,0.00,,,0.00,WUHU216HW,2013-11-10 16:07:00,
2013-11-10 09:08:00,35.3,27.5,29.89,WNW,293,2.9,3.8,73,0.00,,,0.00,WUHU216HW,2013-11-10 16:08:00,
2013-11-10 09:09:00,35.3,27.5,29.89,NW,315,1.1,3.8,73,0.00,,,0.00,WUHU216HW,2013-11-10 16:09:00,
2013-11-10 09:12:00,35.5,27.6,29.88,NW,315,0.7,3.8,73,0.00,,,0.00,WUHU216HW,2013-11-10 16:12:00,
2013-11-10 09:13:00,35.6,27.8,29.88,NW,315,0.9,3.8,73,0.00,,,0.00,WUHU216HW,2013-11-10 16:13:00,
2013-11-10 09:14:00,35.6,28.1,29.89,NNW,338,0.2,3.8,74,0.00,,,0.00,WUHU216HW,2013-11-10 16:14:00,
2013-11-10 09:17:00,35.6,27.8,29.89,West,270,1.8,2.9,73,0.00,,,0.00,WUHU216HW,2013-11-10 16:17:00,
2013-11-10 09:18:00,35.6,27.8,29.89,West,270,1.8,2.9,73,0.00,,,0.00,WUHU216HW,2013-11-10 16:18:00,
2013-11-10 09:19:00,35.6,27.8,29.88,West,270,0.7,1.8,73,0.00,,,0.00,WUHU216HW,2013-11-10 16:19:00,
2013-11-10 09:23:00,36.0,28.2,29.89,WSW,248,2.0,3.4,73,0.00,,,0.00,WUHU216HW,2013-11-10 16:23:00,
2013-11-10 09:24:00,36.0,28.2,29.89,WSW,248,4.0,4.3,73,0.00,,,0.00,WUHU216HW,2013-11-10 16:24:00,
2013-11-10 09:26:00,36.2,28.4,29.89,NNW,338,0.4,4.3,73,0.00,,,0.00,WUHU216HW,2013-11-10 16:26:00,
2013-11-10 09:28:00,36.2,28.4,29.89,WSW,248,1.1,4.3,73,0.00,,,0.00,WUHU216HW,2013-11-10 16:28:00,
2013-11-10 09:29:00,36.4,28.5,29.89,SW,225,2.0,4.3,73,0.00,,,0.00,WUHU216HW,2013-11-10 16:29:00,
2013-11-10 09:31:00,36.4,28.5,29.88,WSW,248,0.0,4.3,73,0.00,,,0.00,WUHU216HW,2013-11-10 16:31:00,
2013-11-10 09:33:00,36.4,28.5,29.89,WSW,248,0.0,4.3,73,0.00,,,0.00,WUHU216HW,2013-11-10 16:33:00,
2013-11-10 09:34:00,36.4,28.5,29.89,WSW,248,0.0,4.3,73,0.00,,,0.00,WUHU216HW,2013-11-10 16:34:00,
2013-11-10 09:35:00,36.4,28.5,29.88,West,270,1.6,2.0,73,0.00,,,0.00,WUHU216HW,2013-11-10 16:35:00,
2013-11-10 09:36:00,36.4,28.5,29.89,West,270,2.9,2.9,73,0.00,,,0.00,WUHU216HW,2013-11-10 16:36:00,
2013-11-10 09:38:00,36.5,28.7,29.89,West,270,0.0,2.9,73,0.00,,,0.00,WUHU216HW,2013-11-10 16:38:00,
2013-11-10 09:39:00,36.5,29.0,29.89,NE,45,1.3,2.9,74,0.00,,,0.00,WUHU216HW,2013-11-10 16:39:00,
2013-11-10 09:41:00,36.5,28.7,29.89,West,270,0.9,2.9,73,0.00,,,0.00,WUHU216HW,2013-11-10 16:41:00,
2013-11-10 09:43:00,36.5,29.0,29.89,WNW,293,2.5,3.8,74,0.00,,,0.00,WUHU216HW,2013-11-10 16:43:00,
2013-11-10 09:44:00,36.5,28.7,29.89,NNW,338,1.3,3.8,73,0.00,,,0.00,WUHU216HW,2013-11-10 16:44:00,
2013-11-10 09:46:00,36.7,28.9,29.89,NNW,338,0.2,3.8,73,0.00,,,0.00,WUHU216HW,2013-11-10 16:46:00,
2013-11-10 09:48:00,36.7,28.9,29.89,NNW,338,0.0,3.8,73,0.00,,,0.00,WUHU216HW,2013-11-10 16:48:00,
2013-11-10 09:49:00,36.7,28.9,29.89,West,270,0.0,3.8,73,0.00,,,0.00,WUHU216HW,2013-11-10 16:49:00,
2013-11-10 09:50:00,36.7,28.9,29.89,WSW,248,1.1,3.8,73,0.00,,,0.00,WUHU216HW,2013-11-10 16:50:00,
2013-11-10 09:51:00,36.9,29.1,29.89,WSW,248,4.0,4.0,73,0.00,,,0.00,WUHU216HW,2013-11-10 16:51:00,
2013-11-10 09:52:00,36.9,29.1,29.89,West,270,3.1,4.0,73,0.00,,,0.00,WUHU216HW,2013-11-10 16:52:00,
2013-11-10 09:53:00,36.9,28.7,29.89,NE,45,0.4,4.0,72,0.00,,,0.00,WUHU216HW,2013-11-10 16:53:00,
2013-11-10 09:54:00,36.9,28.7,29.89,ENE,68,1.8,4.0,72,0.00,,,0.00,WUHU216HW,2013-11-10 16:54:00,
2013-11-10 09:55:00,36.9,28.7,29.89,ENE,68,1.8,4.0,72,0.00,,,0.00,WUHU216HW,2013-11-10 16:55:00,
2013-11-10 09:56:00,36.9,28.7,29.89,SSW,203,0.4,4.0,72,0.00,,,0.00,WUHU216HW,2013-11-10 16:56:00,
2013-11-10 09:57:00,36.7,28.9,29.89,WSW,248,2.5,4.0,73,0.00,,,0.00,WUHU216HW,2013-11-10 16:57:00,
2013-11-10 09:58:00,36.9,29.1,29.89,WSW,248,0.0,4.0,73,0.00,,,0.00,WUHU216HW,2013-11-10 16:58:00,
2013-11-10 09:59:00,36.9,29.1,29.89,WSW,248,0.0,4.0,73,0.00,,,0.00,WUHU216HW,2013-11-10 16:59:00,
2013-11-10 10:00:00,37.1,29.3,29.89,WSW,248,0.0,4.0,73,0.00,,,0.00,WUHU216HW,2013-11-10 17:00:00,
2013-11-10 10:01:00,36.9,29.1,29.89,WSW,248,1.3,4.0,73,0.00,,,0.00,WUHU216HW,2013-11-10 17:01:00,
2013-11-10 10:02:00,37.1,29.3,29.89,West,270,2.5,2.9,73,0.00,,,0.00,WUHU216HW,2013-11-10 17:02:00,
2013-11-10 10:03:00,36.9,29.1,29.89,WNW,293,1.8,2.9,73,0.00,,,0.00,WUHU216HW,2013-11-10 17:03:00,
2013-11-10 10:04:00,36.9,29.1,29.89,NNW,338,1.1,2.9,73,0.00,,,0.00,WUHU216HW,2013-11-10 17:04:00,
2013-11-10 10:05:00,37.1,29.3,29.89,NW,315,1.3,2.9,73,0.00,,,0.00,WUHU216HW,2013-11-10 17:05:00,
2013-11-10 10:06:00,36.9,29.1,29.89,NW,315,1.1,2.9,73,0.00,,,0.00,WUHU216HW,2013-11-10 17:06:00,
2013-11-10 10:07:00,36.9,29.1,29.89,WNW,293,1.3,2.9,73,0.00,,,0.00,WUHU216HW,2013-11-10 17:07:00,
2013-11-10 10:08:00,37.1,29.3,29.89,North,0,1.6,2.9,73,0.00,,,0.00,WUHU216HW,2013-11-10 17:08:00,
2013-11-10 10:10:00,37.1,29.3,29.89,NNE,23,0.4,2.9,73,0.00,,,0.00,WUHU216HW,2013-11-10 17:10:00,
2013-11-10 10:11:00,37.1,29.3,29.89,West,270,1.3,2.9,73,0.00,,,0.00,WUHU216HW,2013-11-10 17:11:00,
2013-11-10 10:12:00,37.1,29.3,29.89,West,270,1.1,2.9,73,0.00,,,0.00,WUHU216HW,2013-11-10 17:12:00,
2013-11-10 10:13:00,37.1,29.3,29.89,WNW,293,1.8,1.8,73,0.00,,,0.00,WUHU216HW,2013-11-10 17:13:00,
2013-11-10 10:15:00,37.1,29.3,29.89,WNW,293,2.2,2.7,73,0.00,,,0.00,WUHU216HW,2013-11-10 17:15:00,
2013-11-10 10:17:00,37.3,29.1,29.89,NE,45,2.5,2.7,72,0.00,,,0.00,WUHU216HW,2013-11-10 17:17:00,
2013-11-10 10:18:00,37.3,29.1,29.89,NE,45,0.4,2.7,72,0.00,,,0.00,WUHU216HW,2013-11-10 17:18:00,
2013-11-10 10:21:00,37.3,29.1,29.89,WSW,248,0.0,2.7,72,0.00,,,0.00,WUHU216HW,2013-11-10 17:21:00,
2013-11-10 10:22:00,37.3,29.1,29.89,NNE,23,0.2,2.7,72,0.00,,,0.00,WUHU216HW,2013-11-10 17:22:00,
2013-11-10 10:23:00,37.4,29.3,29.89,NE,45,1.1,2.7,72,0.00,,,0.00,WUHU216HW,2013-11-10 17:23:00,
2013-11-10 10:26:00,37.4,29.3,29.89,WSW,248,1.3,4.0,72,0.00,,,0.00,WUHU216HW,2013-11-10 17:26:00,
2013-11-10 10:27:00,37.4,29.3,29.89,WSW,248,1.3,4.0,72,0.00,,,0.00,WUHU216HW,2013-11-10 17:27:00,
2013-11-10 10:29:00,37.4,29.0,29.89,NE,45,0.2,4.0,71,0.00,,,0.00,WUHU216HW,2013-11-10 17:29:00,
2013-11-10 10:32:00,37.4,29.0,29.89,North,0,1.3,4.0,71,0.00,,,0.00,WUHU216HW,2013-11-10 17:32:00,
2013-11-10 10:34:00,37.6,29.1,29.89,ENE,68,3.6,4.0,71,0.00,,,0.00,WUHU216HW,2013-11-10 17:34:00,
2013-11-10 10:37:00,37.8,29.3,29.89,NW,315,2.0,5.6,71,0.00,,,0.00,WUHU216HW,2013-11-10 17:37:00,
2013-11-10 10:38:00,37.8,29.3,29.89,WNW,293,2.5,5.6,71,0.00,,,0.00,WUHU216HW,2013-11-10 17:38:00,
2013-11-10 10:39:00,38.0,29.4,29.89,NW,315,4.0,5.6,71,0.00,,,0.00,WUHU216HW,2013-11-10 17:39:00,
2013-11-10 10:42:00,38.2,29.6,29.89,NNE,23,2.2,5.6,71,0.00,,,0.00,WUHU216HW,2013-11-10 17:42:00,
2013-11-10 10:43:00,38.2,29.3,29.89,NNE,23,3.6,5.6,70,0.00,,,0.00,WUHU216HW,2013-11-10 17:43:00,
2013-11-10 10:44:00,38.2,29.3,29.89,North,0,2.0,5.6,70,0.00,,,0.00,WUHU216HW,2013-11-10 17:44:00,
2013-11-10 10:45:00,38.3,29.4,29.89,NW,315,2.5,5.6,70,0.00,,,0.00,WUHU216HW,2013-11-10 17:45:00,
2013-11-10 10:47:00,38.3,29.1,29.89,NW,315,6.0,6.0,69,0.00,,,0.00,WUHU216HW,2013-11-10 17:47:00,
2013-11-10 10:48:00,38.3,29.1,29.89,NW,315,6.0,6.0,69,0.00,,,0.00,WUHU216HW,2013-11-10 17:48:00,
2013-11-10 10:49:00,38.3,29.1,29.89,NW,315,0.7,6.0,69,0.00,,,0.00,WUHU216HW,2013-11-10 17:49:00,
2013-11-10 10:50:00,38.3,29.1,29.89,NW,315,0.2,6.0,69,0.00,,,0.00,WUHU216HW,2013-11-10 17:50:00,
2013-11-10 10:52:00,38.5,29.3,29.89,NW,315,4.0,6.0,69,0.00,,,0.00,WUHU216HW,2013-11-10 17:52:00,
2013-11-10 10:53:00,38.5,29.3,29.89,WNW,293,6.7,6.7,69,0.00,,,0.00,WUHU216HW,2013-11-10 17:53:00,
2013-11-10 10:54:00,38.5,29.3,29.89,NW,315,5.4,6.9,69,0.00,,,0.00,WUHU216HW,2013-11-10 17:54:00,
2013-11-10 10:55:00,38.7,29.8,29.89,NW,315,4.3,7.2,70,0.00,,,0.00,WUHU216HW,2013-11-10 17:55:00,
2013-11-10 10:57:00,39.1,29.4,29.89,WNW,293,5.4,7.2,68,0.00,,,0.00,WUHU216HW,2013-11-10 17:57:00,
2013-11-10 10:58:00,39.1,29.7,29.89,NW,315,4.9,7.2,69,0.00,,,0.00,WUHU216HW,2013-11-10 17:58:00,
2013-11-10 10:59:00,39.2,29.5,29.89,WNW,293,6.0,7.2,68,0.00,,,0.00,WUHU216HW,2013-11-10 17:59:00,
2013-11-10 11:00:00,39.2,29.5,29.89,NW,315,6.7,7.2,68,0.00,,,0.00,WUHU216HW,2013-11-10 18:00:00,
2013-11-10 11:02:00,39.4,29.3,29.89,NW,315,4.5,7.2,67,0.00,,,0.00,WUHU216HW,2013-11-10 18:02:00,
2013-11-10 11:03:00,39.4,29.3,29.89,NNW,338,4.0,7.2,67,0.00,,,0.00,WUHU216HW,2013-11-10 18:03:00,
2013-11-10 11:04:00,39.4,29.3,29.89,NW,315,4.0,6.7,67,0.00,,,0.00,WUHU216HW,2013-11-10 18:04:00,
2013-11-10 11:05:00,39.4,29.3,29.89,NNW,338,4.5,6.7,67,0.00,,,0.00,WUHU216HW,2013-11-10 18:05:00,
2013-11-10 11:06:00,39.4,29.3,29.89,NW,315,4.7,6.7,67,0.00,,,0.00,WUHU216HW,2013-11-10 18:06:00,
2013-11-10 11:07:00,39.4,29.7,29.89,NW,315,3.6,6.7,68,0.00,,,0.00,WUHU216HW,2013-11-10 18:07:00,
2013-11-10 11:08:00,39.6,29.9,29.89,NNW,338,3.4,6.7,68,0.00,,,0.00,WUHU216HW,2013-11-10 18:08:00,
2013-11-10 11:09:00,39.6,29.9,29.89,NW,315,2.9,6.7,68,0.00,,,0.00,WUHU216HW,2013-11-10 18:09:00,
2013-11-10 11:10:00,39.6,29.9,29.89,NW,315,2.9,6.7,68,0.00,,,0.00,WUHU216HW,2013-11-10 18:10:00,
2013-11-10 11:11:00,39.6,29.4,29.89,NNW,338,3.4,6.3,67,0.00,,,0.00,WUHU216HW,2013-11-10 18:11:00,
2013-11-10 11:12:00,39.6,29.4,29.89,NNW,338,2.7,4.7,67,0.00,,,0.00,WUHU216HW,2013-11-10 18:12:00,
2013-11-10 11:13:00,39.6,29.4,29.89,NW,315,3.1,4.7,67,0.00,,,0.00,WUHU216HW,2013-11-10 18:13:00,
2013-11-10 11:15:00,39.6,29.4,29.89,WNW,293,1.8,4.7,67,0.00,,,0.00,WUHU216HW,2013-11-10 18:15:00,
2013-11-10 11:16:00,39.8,29.6,29.89,NW,315,2.5,4.7,67,0.00,,,0.00,WUHU216HW,2013-11-10 18:16:00,
2013-11-10 11:18:00,40.0,29.8,29.89,North,0,1.8,4.5,67,0.00,,,0.00,WUHU216HW,2013-11-10 18:18:00,
2013-11-10 11:19:00,40.0,29.8,29.89,North,0,2.9,4.5,67,0.00,,,0.00,WUHU216HW,2013-11-10 18:19:00,
2013-11-10 11:20:00,40.0,29.8,29.89,NNW,338,1.6,4.0,67,0.00,,,0.00,WUHU216HW,2013-11-10 18:20:00,
2013-11-10 11:21:00,40.1,30.0,29.89,NNW,338,2.2,4.0,67,0.00,,,0.00,WUHU216HW,2013-11-10 18:21:00,
2013-11-10 11:23:00,40.1,29.6,29.89,NW,315,2.5,3.8,66,0.00,,,0.00,WUHU216HW,2013-11-10 18:23:00,
2013-11-10 11:24:00,40.1,29.6,29.89,NNW,338,1.6,3.8,66,0.00,,,0.00,WUHU216HW,2013-11-10 18:24:00,
2013-11-10 11:25:00,40.1,30.0,29.89,North,0,2.0,3.8,67,0.00,,,0.00,WUHU216HW,2013-11-10 18:25:00,
2013-11-10 11:26:00,40.1,30.0,29.89,West,270,1.6,3.8,67,0.00,,,0.00,WUHU216HW,2013-11-10 18:26:00,
2013-11-10 11:27:00,40.3,30.2,29.89,NW,315,2.9,3.8,67,0.00,,,0.00,WUHU216HW,2013-11-10 18:27:00,
2013-11-10 11:28:00,40.3,29.8,29.89,NNW,338,1.8,3.8,66,0.00,,,0.00,WUHU216HW,2013-11-10 18:28:00,
2013-11-10 11:29:00,40.5,30.0,29.89,North,0,3.1,3.8,66,0.00,,,0.00,WUHU216HW,2013-11-10 18:29:00,
2013-11-10 11:30:00,40.5,30.0,29.89,NNW,338,2.2,3.8,66,0.00,,,0.00,WUHU216HW,2013-11-10 18:30:00,
2013-11-10 11:31:00,40.7,30.2,29.89,NNW,338,1.6,3.8,66,0.00,,,0.00,WUHU216HW,2013-11-10 18:31:00,
2013-11-10 11:32:00,40.7,30.2,29.89,NW,315,4.0,4.0,66,0.00,,,0.00,WUHU216HW,2013-11-10 18:32:00,
2013-11-10 11:33:00,40.7,30.2,29.89,NW,315,3.8,4.7,66,0.00,,,0.00,WUHU216HW,2013-11-10 18:33:00,
2013-11-10 11:34:00,40.9,30.0,29.89,NNW,338,1.8,4.7,65,0.00,,,0.00,WUHU216HW,2013-11-10 18:34:00,
2013-11-10 11:35:00,40.9,30.0,29.89,NNW,338,0.9,4.7,65,0.00,,,0.00,WUHU216HW,2013-11-10 18:35:00,
2013-11-10 11:36:00,41.0,29.8,29.89,North,0,1.1,4.7,64,0.00,,,0.00,WUHU216HW,2013-11-10 18:36:00,
2013-11-10 11:37:00,41.0,30.2,29.89,NNW,338,2.0,4.7,65,0.00,,,0.00,WUHU216HW,2013-11-10 18:37:00,
2013-11-10 11:39:00,41.2,30.0,29.89,NNW,338,3.6,4.7,64,0.00,,,0.00,WUHU216HW,2013-11-10 18:39:00,
2013-11-10 11:41:00,41.4,31.2,29.89,WNW,293,4.5,5.6,67,0.00,,,0.00,WUHU216HW,2013-11-10 18:41:00,
2013-11-10 11:42:00,41.4,31.2,29.89,NW,315,3.6,5.6,67,0.00,,,0.00,WUHU216HW,2013-11-10 18:42:00,
2013-11-10 11:43:00,41.6,31.4,29.89,WNW,293,3.1,5.6,67,0.00,,,0.00,WUHU216HW,2013-11-10 18:43:00,
2013-11-10 11:44:00,41.8,31.6,29.89,WNW,293,3.6,5.6,67,0.00,,,0.00,WUHU216HW,2013-11-10 18:44:00,
2013-11-10 11:46:00,41.9,31.8,29.89,WNW,293,5.4,5.6,67,0.00,,,0.00,WUHU216HW,2013-11-10 18:46:00,
2013-11-10 11:47:00,42.1,31.6,29.89,NW,315,4.9,5.6,66,0.00,,,0.00,WUHU216HW,2013-11-10 18:47:00,
2013-11-10 11:48:00,42.1,31.1,29.89,WNW,293,4.9,5.6,65,0.00,,,0.00,WUHU216HW,2013-11-10 18:48:00,
2013-11-10 11:50:00,42.1,31.1,29.89,West,270,4.3,6.7,65,0.00,,,0.00,WUHU216HW,2013-11-10 18:50:00,
2013-11-10 11:51:00,42.1,31.1,29.89,WNW,293,1.6,6.7,65,0.00,,,0.00,WUHU216HW,2013-11-10 18:51:00,
2013-11-10 11:52:00,42.1,31.6,29.89,NW,315,3.6,6.7,66,0.00,,,0.00,WUHU216HW,2013-11-10 18:52:00,
2013-11-10 11:54:00,42.1,31.6,29.89,NW,315,5.1,6.7,66,0.00,,,0.00,WUHU216HW,2013-11-10 18:54:00,
2013-11-10 11:55:00,42.1,31.6,29.89,NW,315,5.1,6.7,66,0.00,,,0.00,WUHU216HW,2013-11-10 18:55:00,
2013-11-10 11:56:00,42.3,31.3,29.89,North,0,2.5,6.7,65,0.00,,,0.00,WUHU216HW,2013-11-10 18:56:00,
2013-11-10 11:58:00,42.5,31.5,29.89,NW,315,4.0,6.7,65,0.00,,,0.00,WUHU216HW,2013-11-10 18:58:00,
2013-11-10 11:59:00,42.5,31.5,29.89,NNW,338,4.0,5.6,65,0.00,,,0.00,WUHU216HW,2013-11-10 18:59:00,
2013-11-10 12:00:00,42.7,30.9,29.89,NW,315,5.4,5.4,63,0.00,,,0.00,WUHU216HW,2013-11-10 19:00:00,
2013-11-10 12:01:00,42.8,31.1,29.89,NNW,338,3.6,5.4,63,0.00,,,0.00,WUHU216HW,2013-11-10 19:01:00,
2013-11-10 12:03:00,42.7,30.5,29.89,NW,315,3.4,5.4,62,0.00,,,0.00,WUHU216HW,2013-11-10 19:03:00,
2013-11-10 12:04:00,42.8,31.1,29.89,NW,315,3.4,5.4,63,0.00,,,0.00,WUHU216HW,2013-11-10 19:04:00,
2013-11-10 12:05:00,42.8,31.1,29.89,NW,315,2.5,5.4,63,0.00,,,0.00,WUHU216HW,2013-11-10 19:05:00,
2013-11-10 12:06:00,43.0,31.2,29.89,NW,315,1.8,5.4,63,0.00,,,0.00,WUHU216HW,2013-11-10 19:06:00,
2013-11-10 12:08:00,43.2,31.4,29.89,WNW,293,2.5,5.4,63,0.00,,,0.00,WUHU216HW,2013-11-10 19:08:00,
2013-11-10 12:09:00,43.6,31.8,29.89,NW,315,3.6,5.4,63,0.00,,,0.00,WUHU216HW,2013-11-10 19:09:00,
2013-11-10 12:10:00,43.9,31.8,29.89,WNW,293,4.7,5.4,62,0.00,,,0.00,WUHU216HW,2013-11-10 19:10:00,
2013-11-10 12:11:00,43.9,31.8,29.89,WNW,293,4.7,4.7,62,0.00,,,0.00,WUHU216HW,2013-11-10 19:11:00,
2013-11-10 12:13:00,44.3,31.7,29.89,NW,315,2.7,4.7,61,0.00,,,0.00,WUHU216HW,2013-11-10 19:13:00,
2013-11-10 12:14:00,44.3,31.7,29.89,NNW,338,1.1,4.7,61,0.00,,,0.00,WUHU216HW,2013-11-10 19:14:00,
2013-11-10 12:15:00,44.3,31.3,29.89,NNW,338,1.6,4.7,60,0.00,,,0.00,WUHU216HW,2013-11-10 19:15:00,
2013-11-10 12:16:00,44.5,31.1,29.89,NNW,338,1.3,4.7,59,0.00,,,0.00,WUHU216HW,2013-11-10 19:16:00,
2013-11-10 12:17:00,44.5,31.1,29.89,NNW,338,1.3,4.7,59,0.00,,,0.00,WUHU216HW,2013-11-10 19:17:00,
2013-11-10 12:19:00,44.5,31.9,29.89,NW,315,4.0,4.7,61,0.00,,,0.00,WUHU216HW,2013-11-10 19:19:00,
2013-11-10 12:20:00,44.6,32.0,29.89,WNW,293,4.7,4.9,61,0.00,,,0.00,WUHU216HW,2013-11-10 19:20:00,
2013-11-10 12:21:00,44.8,32.6,29.89,NW,315,4.3,4.9,62,0.00,,,0.00,WUHU216HW,2013-11-10 19:21:00,
2013-11-10 12:22:00,45.0,32.4,29.89,NNW,338,3.4,4.9,61,0.00,,,0.00,WUHU216HW,2013-11-10 19:22:00,
2013-11-10 12:24:00,45.2,31.7,29.89,NW,315,6.3,6.3,59,0.00,,,0.00,WUHU216HW,2013-11-10 19:24:00,
2013-11-10 12:25:00,45.2,31.7,29.89,NW,315,5.8,6.3,59,0.00,,,0.00,WUHU216HW,2013-11-10 19:25:00,
2013-11-10 12:27:00,45.4,32.3,29.89,NW,315,6.0,6.3,60,0.00,,,0.00,WUHU216HW,2013-11-10 19:27:00,
2013-11-10 12:29:00,45.4,31.4,29.89,NW,315,5.6,6.7,58,0.00,,,0.00,WUHU216HW,2013-11-10 19:29:00,
2013-11-10 12:30:00,45.4,31.9,29.88,NW,315,5.6,6.7,59,0.00,,,0.00,WUHU216HW,2013-11-10 19:30:00,
2013-11-10 12:31:00,45.5,32.0,29.88,NW,315,4.9,6.7,59,0.00,,,0.00,WUHU216HW,2013-11-10 19:31:00,
2013-11-10 12:32:00,45.4,31.9,29.88,WNW,293,3.8,6.7,59,0.00,,,0.00,WUHU216HW,2013-11-10 19:32:00,
2013-11-10 12:35:00,45.9,32.9,29.89,WNW,293,4.5,6.7,60,0.00,,,0.00,WUHU216HW,2013-11-10 19:35:00,
2013-11-10 12:36:00,46.1,32.9,29.88,West,270,5.4,6.7,60,0.00,,,0.00,WUHU216HW,2013-11-10 19:36:00,
2013-11-10 12:37:00,46.6,32.1,29.88,North,0,3.1,6.7,57,0.00,,,0.00,WUHU216HW,2013-11-10 19:37:00,
2013-11-10 12:38:00,46.6,32.1,29.88,NNW,338,3.8,6.7,57,0.00,,,0.00,WUHU216HW,2013-11-10 19:38:00,
2013-11-10 12:40:00,46.8,32.3,29.88,NNW,338,6.5,7.4,57,0.00,,,0.00,WUHU216HW,2013-11-10 19:40:00,
2013-11-10 12:41:00,46.8,32.3,29.88,NW,315,5.8,7.4,57,0.00,,,0.00,WUHU216HW,2013-11-10 19:41:00,
2013-11-10 12:42:00,47.0,32.5,29.88,WNW,293,5.1,7.4,57,0.00,,,0.00,WUHU216HW,2013-11-10 19:42:00,
2013-11-10 12:43:00,47.2,33.1,29.89,NNW,338,4.3,7.4,58,0.00,,,0.00,WUHU216HW,2013-11-10 19:43:00,
2013-11-10 12:46:00,47.5,33.0,29.89,NW,315,5.4,7.4,57,0.00,,,0.00,WUHU216HW,2013-11-10 19:46:00,
2013-11-10 12:47:00,47.5,32.6,29.89,North,0,3.6,7.4,56,0.00,,,0.00,WUHU216HW,2013-11-10 19:47:00,
2013-11-10 12:48:00,47.5,33.0,29.88,NW,315,3.8,7.4,57,0.00,,,0.00,WUHU216HW,2013-11-10 19:48:00,
2013-11-10 12:51:00,47.9,32.9,29.89,NNW,338,3.6,5.4,56,0.00,,,0.00,WUHU216HW,2013-11-10 19:51:00,
2013-11-10 12:52:00,48.1,33.0,29.89,NNW,338,2.5,5.4,56,0.00,,,0.00,WUHU216HW,2013-11-10 19:52:00,
2013-11-10 12:53:00,48.4,33.0,29.89,NNW,338,6.9,6.9,55,0.00,,,0.00,WUHU216HW,2013-11-10 19:53:00,
2013-11-10 12:56:00,48.4,32.5,29.88,NNW,338,4.3,6.9,54,0.00,,,0.00,WUHU216HW,2013-11-10 19:56:00,
2013-11-10 12:57:00,48.4,33.0,29.88,North,0,2.5,6.9,55,0.00,,,0.00,WUHU216HW,2013-11-10 19:57:00,
2013-11-10 12:58:00,48.6,32.7,29.88,North,0,3.6,6.9,54,0.00,,,0.00,WUHU216HW,2013-11-10 19:58:00,
2013-11-10 13:01:00,49.0,32.5,29.88,North,0,3.1,6.9,53,0.00,,,0.00,WUHU216HW,2013-11-10 20:01:00,
2013-11-10 13:02:00,49.0,32.5,29.88,NNW,338,2.9,6.9,53,0.00,,,0.00,WUHU216HW,2013-11-10 20:02:00,
2013-11-10 13:03:00,49.1,32.7,29.88,North,0,4.5,6.9,53,0.00,,,0.00,WUHU216HW,2013-11-10 20:03:00,
2013-11-10 13:07:00,49.3,32.0,29.88,North,0,2.5,6.3,51,0.00,,,0.00,WUHU216HW,2013-11-10 20:07:00,
2013-11-10 13:08:00,49.3,32.9,29.88,NNW,338,2.5,6.5,53,0.00,,,0.00,WUHU216HW,2013-11-10 20:08:00,
2013-11-10 13:12:00,49.3,32.9,29.88,North,0,4.5,6.9,53,0.00,,,0.00,WUHU216HW,2013-11-10 20:12:00,
2013-11-10 13:13:00,49.3,33.3,29.88,NNW,338,4.5,6.9,54,0.00,,,0.00,WUHU216HW,2013-11-10 20:13:00,
2013-11-10 13:17:00,48.8,33.8,29.88,WNW,293,5.1,6.9,56,0.00,,,0.00,WUHU216HW,2013-11-10 20:17:00,
2013-11-10 13:18:00,48.6,33.6,29.88,WNW,293,4.9,6.9,56,0.00,,,0.00,WUHU216HW,2013-11-10 20:18:00,
2013-11-10 13:19:00,48.6,33.6,29.88,NW,315,4.7,6.9,56,0.00,,,0.00,WUHU216HW,2013-11-10 20:19:00,
2013-11-10 13:23:00,48.8,34.2,29.88,NW,315,5.4,6.7,57,0.00,,,0.00,WUHU216HW,2013-11-10 20:23:00,
2013-11-10 13:24:00,48.8,34.2,29.88,WNW,293,4.5,6.7,57,0.00,,,0.00,WUHU216HW,2013-11-10 20:24:00,
2013-11-10 13:28:00,49.3,34.2,29.88,WNW,293,3.6,5.4,56,0.00,,,0.00,WUHU216HW,2013-11-10 20:28:00,
2013-11-10 13:29:00,49.5,34.4,29.89,WNW,293,2.2,5.4,56,0.00,,,0.00,WUHU216HW,2013-11-10 20:29:00,
2013-11-10 13:33:00,49.7,33.7,29.88,NW,315,4.0,5.4,54,0.00,,,0.00,WUHU216HW,2013-11-10 20:33:00,
2013-11-10 13:34:00,49.5,33.0,29.88,NW,315,4.5,4.5,53,0.00,,,0.00,WUHU216HW,2013-11-10 20:34:00,
2013-11-10 13:35:00,49.5,33.0,29.88,NW,315,4.7,4.7,53,0.00,,,0.00,WUHU216HW,2013-11-10 20:35:00,
2013-11-10 13:38:00,49.3,32.9,29.88,North,0,1.6,6.9,53,0.00,,,0.00,WUHU216HW,2013-11-10 20:38:00,
2013-11-10 13:39:00,49.3,33.3,29.87,NNW,338,2.0,6.9,54,0.00,,,0.00,WUHU216HW,2013-11-10 20:39:00,
2013-11-10 13:40:00,49.3,32.9,29.87,North,0,1.8,6.9,53,0.00,,,0.00,WUHU216HW,2013-11-10 20:40:00,
2013-11-10 13:43:00,49.3,32.9,29.88,WNW,293,3.8,6.9,53,0.00,,,0.00,WUHU216HW,2013-11-10 20:43:00,
2013-11-10 13:44:00,49.3,32.9,29.88,WNW,293,3.8,6.9,53,0.00,,,0.00,WUHU216HW,2013-11-10 20:44:00,
2013-11-10 13:45:00,49.3,33.3,29.88,NW,315,4.5,6.9,54,0.00,,,0.00,WUHU216HW,2013-11-10 20:45:00,
2013-11-10 13:48:00,49.5,33.5,29.88,NW,315,6.0,6.0,54,0.00,,,0.00,WUHU216HW,2013-11-10 20:48:00,
2013-11-10 13:49:00,49.5,33.5,29.88,NW,315,6.0,6.0,54,0.00,,,0.00,WUHU216HW,2013-11-10 20:49:00,
2013-11-10 13:50:00,49.3,32.9,29.88,NW,315,4.0,6.0,53,0.00,,,0.00,WUHU216HW,2013-11-10 20:50:00,
2013-11-10 13:54:00,49.3,33.3,29.88,WNW,293,4.0,6.0,54,0.00,,,0.00,WUHU216HW,2013-11-10 20:54:00,
2013-11-10 13:55:00,49.3,33.3,29.89,WNW,293,3.6,6.0,54,0.00,,,0.00,WUHU216HW,2013-11-10 20:55:00,
2013-11-10 13:59:00,49.3,33.8,29.88,WNW,293,4.0,6.0,55,0.00,,,0.00,WUHU216HW,2013-11-10 20:59:00,
2013-11-10 14:00:00,49.3,33.8,29.88,NW,315,4.9,5.6,55,0.00,,,0.00,WUHU216HW,2013-11-10 21:00:00,
2013-11-10 14:01:00,49.3,33.8,29.89,NW,315,3.4,5.6,55,0.00,,,0.00,WUHU216HW,2013-11-10 21:01:00,
2013-11-10 14:04:00,49.3,33.8,29.89,NW,315,6.9,6.9,55,0.00,,,0.00,WUHU216HW,2013-11-10 21:04:00,
2013-11-10 14:05:00,49.5,33.9,29.89,NW,315,6.3,6.9,55,0.00,,,0.00,WUHU216HW,2013-11-10 21:05:00,
2013-11-10 14:06:00,49.5,33.9,29.89,NNW,338,5.6,6.9,55,0.00,,,0.00,WUHU216HW,2013-11-10 21:06:00,
2013-11-10 14:09:00,49.3,33.8,29.89,NW,315,4.0,6.9,55,0.00,,,0.00,WUHU216HW,2013-11-10 21:09:00,
2013-11-10 14:10:00,49.3,33.8,29.89,NW,315,4.7,6.9,55,0.00,,,0.00,WUHU216HW,2013-11-10 21:10:00,
2013-11-10 14:11:00,49.3,33.8,29.89,NW,315,4.7,6.9,55,0.00,,,0.00,WUHU216HW,2013-11-10 21:11:00,
2013-11-10 14:14:00,49.3,34.2,29.89,NW,315,5.4,6.3,56,0.00,,,0.00,WUHU216HW,2013-11-10 21:14:00,
2013-11-10 14:15:00,49.5,34.4,29.89,NW,315,4.0,6.3,56,0.00,,,0.00,WUHU216HW,2013-11-10 21:15:00,
2013-11-10 14:16:00,49.5,34.4,29.89,WNW,293,4.5,6.3,56,0.00,,,0.00,WUHU216HW,2013-11-10 21:16:00,
2013-11-10 14:17:00,49.5,34.4,29.89,WNW,293,6.5,6.5,56,0.00,,,0.00,WUHU216HW,2013-11-10 21:17:00,
2013-11-10 14:19:00,49.7,35.0,29.89,WNW,293,4.0,6.5,57,0.00,,,0.00,WUHU216HW,2013-11-10 21:19:00,
2013-11-10 14:20:00,49.5,34.8,29.89,WNW,293,3.8,6.5,57,0.00,,,0.00,WUHU216HW,2013-11-10 21:20:00,
2013-11-10 14:21:00,49.5,34.8,29.89,West,270,3.1,6.5,57,0.00,,,0.00,WUHU216HW,2013-11-10 21:21:00,
2013-11-10 14:23:00,49.5,35.3,29.89,NW,315,5.1,6.5,58,0.00,,,0.00,WUHU216HW,2013-11-10 21:23:00,
2013-11-10 14:25:00,49.5,35.3,29.89,WNW,293,3.4,6.5,58,0.00,,,0.00,WUHU216HW,2013-11-10 21:25:00,
2013-11-10 14:26:00,49.3,35.2,29.89,WNW,293,4.0,6.5,58,0.00,,,0.00,WUHU216HW,2013-11-10 21:26:00,
2013-11-10 14:27:00,49.5,34.8,29.89,NW,315,4.7,6.5,57,0.00,,,0.00,WUHU216HW,2013-11-10 21:27:00,
2013-11-10 14:28:00,49.5,34.8,29.89,WNW,293,4.9,5.4,57,0.00,,,0.00,WUHU216HW,2013-11-10 21:28:00,
2013-11-10 14:30:00,49.7,35.0,29.89,NW,315,6.5,6.5,57,0.00,,,0.00,WUHU216HW,2013-11-10 21:30:00,
2013-11-10 14:31:00,49.7,35.0,29.89,WNW,293,3.4,6.5,57,0.00,,,0.00,WUHU216HW,2013-11-10 21:31:00,
2013-11-10 14:32:00,49.7,35.0,29.89,West,270,3.4,6.5,57,0.00,,,0.00,WUHU216HW,2013-11-10 21:32:00,
2013-11-10 14:34:00,49.7,35.0,29.89,WNW,293,2.5,6.5,57,0.00,,,0.00,WUHU216HW,2013-11-10 21:34:00,
2013-11-10 14:35:00,49.9,35.2,29.89,NW,315,4.3,6.5,57,0.00,,,0.00,WUHU216HW,2013-11-10 21:35:00,
2013-11-10 14:36:00,49.9,35.2,29.89,NW,315,5.1,6.5,57,0.00,,,0.00,WUHU216HW,2013-11-10 21:36:00,
2013-11-10 14:37:00,49.9,35.2,29.89,NNW,338,2.7,6.5,57,0.00,,,0.00,WUHU216HW,2013-11-10 21:37:00,
2013-11-10 14:39:00,49.7,34.6,29.89,NNW,338,5.4,6.5,56,0.00,,,0.00,WUHU216HW,2013-11-10 21:39:00,
2013-11-10 14:40:00,49.7,35.0,29.89,NNW,338,3.6,5.4,57,0.00,,,0.00,WUHU216HW,2013-11-10 21:40:00,
2013-11-10 14:41:00,49.5,34.8,29.89,NNW,338,3.6,5.4,57,0.00,,,0.00,WUHU216HW,2013-11-10 21:41:00,
2013-11-10 14:42:00,49.5,34.8,29.89,NNW,338,5.1,6.3,57,0.00,,,0.00,WUHU216HW,2013-11-10 21:42:00,
2013-11-10 14:44:00,49.3,34.2,29.89,NW,315,3.4,6.3,56,0.00,,,0.00,WUHU216HW,2013-11-10 21:44:00,
2013-11-10 14:45:00,49.3,34.8,29.89,NW,315,4.3,6.3,57,0.00,,,0.00,WUHU216HW,2013-11-10 21:45:00,
2013-11-10 14:46:00,49.3,34.2,29.89,NW,315,5.1,6.3,56,0.00,,,0.00,WUHU216HW,2013-11-10 21:46:00,
2013-11-10 14:47:00,49.3,34.2,29.89,NW,315,4.9,6.3,56,0.00,,,0.00,WUHU216HW,2013-11-10 21:47:00,
2013-11-10 14:49:00,49.5,34.8,29.89,NNW,338,3.4,6.3,57,0.00,,,0.00,WUHU216HW,2013-11-10 21:49:00,
2013-11-10 14:50:00,49.5,34.4,29.89,NW,315,4.0,6.3,56,0.00,,,0.00,WUHU216HW,2013-11-10 21:50:00,
2013-11-10 14:51:00,49.5,34.4,29.89,NNW,338,5.1,6.3,56,0.00,,,0.00,WUHU216HW,2013-11-10 21:51:00,
2013-11-10 14:52:00,49.5,34.4,29.89,NNW,338,5.4,5.4,56,0.00,,,0.00,WUHU216HW,2013-11-10 21:52:00,
2013-11-10 14:54:00,49.5,34.4,29.89,NNW,338,3.8,5.4,56,0.00,,,0.00,WUHU216HW,2013-11-10 21:54:00,
2013-11-10 14:55:00,49.5,33.9,29.89,NNW,338,4.3,5.4,55,0.00,,,0.00,WUHU216HW,2013-11-10 21:55:00,
2013-11-10 14:56:00,49.5,33.9,29.89,NNW,338,4.3,5.4,55,0.00,,,0.00,WUHU216HW,2013-11-10 21:56:00,
2013-11-10 14:57:00,49.5,33.9,29.89,NNW,338,3.8,5.4,55,0.00,,,0.00,WUHU216HW,2013-11-10 21:57:00,
2013-11-10 14:59:00,49.5,33.9,29.89,WNW,293,4.0,5.4,55,0.00,,,0.00,WUHU216HW,2013-11-10 21:59:00,
2013-11-10 15:00:00,49.5,33.9,29.89,WNW,293,3.6,5.4,55,0.00,,,0.00,WUHU216HW,2013-11-10 22:00:00,
2013-11-10 15:01:00,49.5,33.9,29.89,WNW,293,2.7,5.4,55,0.00,,,0.00,WUHU216HW,2013-11-10 22:01:00,
2013-11-10 15:02:00,49.5,34.4,29.89,WNW,293,2.7,5.4,56,0.00,,,0.00,WUHU216HW,2013-11-10 22:02:00,
2013-11-10 15:03:00,49.5,34.4,29.89,WNW,293,3.1,4.9,56,0.00,,,0.00,WUHU216HW,2013-11-10 22:03:00,
2013-11-10 15:04:00,49.7,34.6,29.89,WNW,293,4.0,4.9,56,0.00,,,0.00,WUHU216HW,2013-11-10 22:04:00,
2013-11-10 15:05:00,49.7,34.6,29.89,NW,315,3.6,4.9,56,0.00,,,0.00,WUHU216HW,2013-11-10 22:05:00,
2013-11-10 15:06:00,49.7,34.6,29.89,WNW,293,4.3,4.9,56,0.00,,,0.00,WUHU216HW,2013-11-10 22:06:00,
2013-11-10 15:07:00,49.7,34.6,29.89,WNW,293,2.7,4.7,56,0.00,,,0.00,WUHU216HW,2013-11-10 22:07:00,
2013-11-10 15:09:00,49.9,34.7,29.88,NW,315,2.5,4.3,56,0.00,,,0.00,WUHU216HW,2013-11-10 22:09:00,
2013-11-10 15:10:00,50.0,34.9,29.88,NW,315,2.2,4.3,56,0.00,,,0.00,WUHU216HW,2013-11-10 22:10:00,
2013-11-10 15:11:00,50.0,34.9,29.88,NW,315,1.6,4.3,56,0.00,,,0.00,WUHU216HW,2013-11-10 22:11:00,
2013-11-10 15:12:00,50.0,34.9,29.88,WNW,293,1.6,4.3,56,0.00,,,0.00,WUHU216HW,2013-11-10 22:12:00,
2013-11-10 15:14:00,50.2,35.6,29.89,NW,315,1.1,4.3,57,0.00,,,0.00,WUHU216HW,2013-11-10 22:14:00,
2013-11-10 15:15:00,50.2,35.6,29.88,NNW,338,1.1,4.3,57,0.00,,,0.00,WUHU216HW,2013-11-10 22:15:00,
2013-11-10 15:16:00,50.2,35.6,29.88,NNW,338,0.9,3.8,57,0.00,,,0.00,WUHU216HW,2013-11-10 22:16:00,
2013-11-10 15:17:00,50.2,35.1,29.88,North,0,0.9,2.9,56,0.00,,,0.00,WUHU216HW,2013-11-10 22:17:00,
2013-11-10 15:19:00,50.4,34.8,29.88,NNW,338,1.8,2.2,55,0.00,,,0.00,WUHU216HW,2013-11-10 22:19:00,
2013-11-10 15:21:00,50.4,34.8,29.88,NNW,338,1.1,2.7,55,0.00,,,0.00,WUHU216HW,2013-11-10 22:21:00,
2013-11-10 15:22:00,50.4,34.8,29.88,North,0,2.0,2.7,55,0.00,,,0.00,WUHU216HW,2013-11-10 22:22:00,
2013-11-10 15:23:00,50.4,35.3,29.88,North,0,1.8,2.7,56,0.00,,,0.00,WUHU216HW,2013-11-10 22:23:00,
2013-11-10 15:24:00,50.2,34.7,29.88,NE,45,2.5,2.7,55,0.00,,,0.00,WUHU216HW,2013-11-10 22:24:00,
2013-11-10 15:26:00,50.4,35.3,29.88,NE,45,2.9,3.4,56,0.00,,,0.00,WUHU216HW,2013-11-10 22:26:00,
2013-11-10 15:27:00,50.2,34.7,29.88,North,0,2.5,3.4,55,0.00,,,0.00,WUHU216HW,2013-11-10 22:27:00,
2013-11-10 15:28:00,50.2,35.1,29.88,North,0,2.9,3.4,56,0.00,,,0.00,WUHU216HW,2013-11-10 22:28:00,
2013-11-10 15:29:00,50.0,34.9,29.88,North,0,4.9,4.9,56,0.00,,,0.00,WUHU216HW,2013-11-10 22:29:00,
2013-11-10 15:31:00,50.0,35.4,29.88,North,0,3.4,4.9,57,0.00,,,0.00,WUHU216HW,2013-11-10 22:31:00,
2013-11-10 15:32:00,50.0,34.5,29.88,North,0,4.0,5.1,55,0.00,,,0.00,WUHU216HW,2013-11-10 22:32:00,
2013-11-10 15:33:00,50.0,34.9,29.88,North,0,2.7,5.1,56,0.00,,,0.00,WUHU216HW,2013-11-10 22:33:00,
2013-11-10 15:34:00,49.9,34.7,29.88,North,0,3.8,5.1,56,0.00,,,0.00,WUHU216HW,2013-11-10 22:34:00,
2013-11-10 15:36:00,49.9,34.7,29.88,North,0,4.7,5.1,56,0.00,,,0.00,WUHU216HW,2013-11-10 22:36:00,
2013-11-10 15:37:00,49.7,34.6,29.88,North,0,5.4,5.4,56,0.00,,,0.00,WUHU216HW,2013-11-10 22:37:00,
2013-11-10 15:38:00,49.5,35.3,29.88,NNW,338,2.5,5.4,58,0.00,,,0.00,WUHU216HW,2013-11-10 22:38:00,
2013-11-10 15:40:00,49.3,35.2,29.88,NNW,338,1.6,5.4,58,0.00,,,0.00,WUHU216HW,2013-11-10 22:40:00,
2013-11-10 15:41:00,49.3,35.2,29.88,NNW,338,1.6,5.4,58,0.00,,,0.00,WUHU216HW,2013-11-10 22:41:00,
2013-11-10 15:42:00,49.3,35.2,29.88,NNW,338,1.6,5.4,58,0.00,,,0.00,WUHU216HW,2013-11-10 22:42:00,
2013-11-10 15:43:00,49.0,34.8,29.88,WNW,293,1.8,5.4,58,0.00,,,0.00,WUHU216HW,2013-11-10 22:43:00,
2013-11-10 15:45:00,48.8,34.7,29.88,NW,315,1.3,5.4,58,0.00,,,0.00,WUHU216HW,2013-11-10 22:45:00,
2013-11-10 15:46:00,48.8,34.7,29.88,NW,315,1.6,5.4,58,0.00,,,0.00,WUHU216HW,2013-11-10 22:46:00,
2013-11-10 15:47:00,48.8,34.7,29.88,WNW,293,1.8,3.6,58,0.00,,,0.00,WUHU216HW,2013-11-10 22:47:00,
2013-11-10 15:48:00,48.8,34.7,29.88,West,270,2.5,2.5,58,0.00,,,0.00,WUHU216HW,2013-11-10 22:48:00,
2013-11-10 15:51:00,48.6,34.5,29.88,WSW,248,1.8,2.5,58,0.00,,,0.00,WUHU216HW,2013-11-10 22:51:00,
2013-11-10 15:52:00,48.6,34.9,29.88,WSW,248,2.5,2.9,59,0.00,,,0.00,WUHU216HW,2013-11-10 22:52:00,
2013-11-10 15:53:00,48.6,34.9,29.88,WSW,248,3.1,3.4,59,0.00,,,0.00,WUHU216HW,2013-11-10 22:53:00,
2013-11-10 15:56:00,48.4,34.8,29.87,WSW,248,3.1,4.3,59,0.00,,,0.00,WUHU216HW,2013-11-10 22:56:00,
2013-11-10 15:57:00,48.6,35.5,29.87,SW,225,3.1,4.3,60,0.00,,,0.00,WUHU216HW,2013-11-10 22:57:00,
2013-11-10 15:58:00,48.4,35.3,29.87,SW,225,3.4,4.3,60,0.00,,,0.00,WUHU216HW,2013-11-10 22:58:00,
2013-11-10 16:01:00,48.4,35.3,29.87,WSW,248,2.9,4.3,60,0.00,,,0.00,WUHU216HW,2013-11-10 23:01:00,
2013-11-10 16:02:00,48.4,35.3,29.87,WSW,248,1.6,4.3,60,0.00,,,0.00,WUHU216HW,2013-11-10 23:02:00,
2013-11-10 16:03:00,48.2,35.1,29.87,WSW,248,2.5,4.3,60,0.00,,,0.00,WUHU216HW,2013-11-10 23:03:00,
2013-11-10 16:06:00,48.2,35.5,29.87,WSW,248,2.2,3.6,61,0.00,,,0.00,WUHU216HW,2013-11-10 23:06:00,
2013-11-10 16:07:00,48.2,35.5,29.87,WSW,248,2.5,3.6,61,0.00,,,0.00,WUHU216HW,2013-11-10 23:07:00,
2013-11-10 16:08:00,48.2,35.5,29.87,WSW,248,2.9,3.6,61,0.00,,,0.00,WUHU216HW,2013-11-10 23:08:00,
2013-11-10 16:11:00,48.4,35.6,29.87,SW,225,2.7,3.4,61,0.00,,,0.00,WUHU216HW,2013-11-10 23:11:00,
2013-11-10 16:12:00,48.4,35.6,29.87,SW,225,2.0,3.4,61,0.00,,,0.00,WUHU216HW,2013-11-10 23:12:00,
2013-11-10 16:13:00,48.6,35.8,29.87,SW,225,1.3,3.4,61,0.00,,,0.00,WUHU216HW,2013-11-10 23:13:00,
2013-11-10 16:16:00,48.6,35.8,29.87,SW,225,2.2,3.4,61,0.00,,,0.00,WUHU216HW,2013-11-10 23:16:00,
2013-11-10 16:17:00,48.4,35.6,29.87,SW,225,2.0,3.4,61,0.00,,,0.00,WUHU216HW,2013-11-10 23:17:00,
2013-11-10 16:18:00,48.4,35.6,29.87,SW,225,2.0,3.4,61,0.00,,,0.00,WUHU216HW,2013-11-10 23:18:00,
2013-11-10 16:21:00,48.4,35.6,29.87,SW,225,1.8,2.7,61,0.00,,,0.00,WUHU216HW,2013-11-10 23:21:00,
2013-11-10 16:23:00,48.4,36.0,29.87,ESE,113,0.2,2.5,62,0.00,,,0.00,WUHU216HW,2013-11-10 23:23:00,
2013-11-10 16:24:00,48.4,35.6,29.87,NE,45,0.7,2.5,61,0.00,,,0.00,WUHU216HW,2013-11-10 23:24:00,
2013-11-10 16:27:00,47.9,35.1,29.87,North,0,0.4,2.5,61,0.00,,,0.00,WUHU216HW,2013-11-10 23:27:00,
2013-11-10 16:28:00,47.9,35.1,29.87,North,0,0.2,2.5,61,0.00,,,0.00,WUHU216HW,2013-11-10 23:28:00,
2013-11-10 16:29:00,47.9,35.1,29.87,NNW,338,0.2,2.5,61,0.00,,,0.00,WUHU216HW,2013-11-10 23:29:00,
2013-11-10 16:32:00,47.5,34.7,29.87,NNW,338,1.8,1.8,61,0.00,,,0.00,WUHU216HW,2013-11-10 23:32:00,
2013-11-10 16:33:00,47.2,34.4,29.87,North,0,1.3,1.8,61,0.00,,,0.00,WUHU216HW,2013-11-10 23:33:00,
2013-11-10 16:34:00,46.8,34.0,29.87,North,0,2.0,2.0,61,0.00,,,0.00,WUHU216HW,2013-11-10 23:34:00,
2013-11-10 16:37:00,45.4,33.5,29.88,NNW,338,7.2,7.2,63,0.00,,,0.00,WUHU216HW,2013-11-10 23:37:00,
2013-11-10 16:38:00,44.8,32.9,29.88,NNW,338,6.9,7.6,63,0.00,,,0.00,WUHU216HW,2013-11-10 23:38:00,
2013-11-10 16:39:00,44.6,33.2,29.88,NW,315,8.1,8.1,64,0.00,,,0.00,WUHU216HW,2013-11-10 23:39:00,
2013-11-10 16:42:00,43.6,32.6,29.88,NW,315,8.9,8.9,65,0.00,,,0.00,WUHU216HW,2013-11-10 23:42:00,
2013-11-10 16:43:00,43.4,32.4,29.88,NW,315,7.4,9.2,65,0.00,,,0.00,WUHU216HW,2013-11-10 23:43:00,
2013-11-10 16:44:00,43.2,32.2,29.88,WNW,293,8.7,9.2,65,0.00,,,0.00,WUHU216HW,2013-11-10 23:44:00,
2013-11-10 16:47:00,42.8,32.2,29.88,NW,315,11.0,11.0,66,0.00,,,0.00,WUHU216HW,2013-11-10 23:47:00,
2013-11-10 16:48:00,42.8,32.2,29.88,WNW,293,10.5,11.0,66,0.00,,,0.00,WUHU216HW,2013-11-10 23:48:00,
2013-11-10 16:49:00,42.8,32.7,29.89,NW,315,7.4,11.0,67,0.00,,,0.00,WUHU216HW,2013-11-10 23:49:00,
2013-11-10 16:50:00,42.7,32.5,29.89,NW,315,7.6,11.0,67,0.00,,,0.00,WUHU216HW,2013-11-10 23:50:00,
2013-11-10 16:52:00,42.7,32.5,29.88,WNW,293,6.9,11.0,67,0.00,,,0.00,WUHU216HW,2013-11-10 23:52:00,
2013-11-10 16:53:00,42.5,32.3,29.88,NW,315,8.5,11.0,67,0.00,,,0.00,WUHU216HW,2013-11-10 23:53:00,
2013-11-10 16:54:00,42.5,32.3,29.89,NW,315,7.4,11.0,67,0.00,,,0.00,WUHU216HW,2013-11-10 23:54:00,
2013-11-10 16:55:00,42.5,32.7,29.89,NW,315,7.4,11.0,68,0.00,,,0.00,WUHU216HW,2013-11-10 23:55:00,
2013-11-10 16:57:00,42.1,32.3,29.89,NNW,338,13.0,13.0,68,0.00,,,0.00,WUHU216HW,2013-11-10 23:57:00,
2013-11-10 16:59:00,42.1,32.3,29.89,WNW,293,13.9,13.9,68,0.00,,,0.00,WUHU216HW,2013-11-10 23:59:00,
2013-11-10 17:00:00,41.9,32.1,29.89,WNW,293,11.4,13.9,68,0.00,,,0.00,WUHU216HW,2013-11-11 00:00:00,
2013-11-10 17:02:00,41.9,32.1,29.89,WNW,293,11.4,13.9,68,0.00,,,0.00,WUHU216HW,2013-11-11 00:02:00,
2013-11-10 17:04:00,41.9,32.1,29.89,WNW,293,11.4,13.9,68,0.00,,,0.00,WUHU216HW,2013-11-11 00:04:00,
2013-11-10 17:05:00,41.9,32.1,29.89,WNW,293,11.4,13.9,68,0.00,,,0.00,WUHU216HW,2013-11-11 00:05:00,
2013-11-10 17:07:00,41.9,32.1,29.89,WNW,293,11.4,13.9,68,0.00,,,0.00,WUHU216HW,2013-11-11 00:07:00,
2013-11-10 17:10:00,41.9,32.1,29.89,WNW,293,11.4,11.4,68,0.00,,,0.00,WUHU216HW,2013-11-11 00:10:00,
2013-11-10 17:59:00,38.0,30.4,29.89,NW,315,6.9,6.9,74,0.00,,,0.00,WUHU216HW,2013-11-11 00:59:00,
2013-11-10 18:00:00,38.0,30.4,29.89,NW,315,6.9,6.9,74,0.00,,,0.00,WUHU216HW,2013-11-11 01:00:00,
2013-11-10 18:04:00,38.0,30.4,29.89,NW,315,9.2,13.4,74,0.00,,,0.00,WUHU216HW,2013-11-11 01:04:00,
2013-11-10 18:05:00,38.0,30.4,29.89,WNW,293,13.6,13.6,74,0.00,,,0.00,WUHU216HW,2013-11-11 01:05:00,
2013-11-10 18:10:00,38.2,30.6,29.89,WNW,293,10.5,13.6,74,0.00,,,0.00,WUHU216HW,2013-11-11 01:10:00,
2013-11-10 18:11:00,38.0,30.4,29.89,NW,315,10.1,13.6,74,0.00,,,0.00,WUHU216HW,2013-11-11 01:11:00,
2013-11-10 18:15:00,38.0,30.4,29.89,NW,315,14.8,14.8,74,0.00,,,0.00,WUHU216HW,2013-11-11 01:15:00,
2013-11-10 18:16:00,38.0,30.4,29.89,NW,315,14.1,14.8,74,0.00,,,0.00,WUHU216HW,2013-11-11 01:16:00,
2013-11-10 18:17:00,37.8,30.0,29.89,WNW,293,11.4,14.8,73,0.00,,,0.00,WUHU216HW,2013-11-11 01:17:00,
2013-11-10 18:20:00,37.8,30.2,29.89,NW,315,12.8,14.8,74,0.00,,,0.00,WUHU216HW,2013-11-11 01:20:00,
2013-11-10 18:22:00,37.6,30.1,29.89,NW,315,13.9,15.7,74,0.00,,,0.00,WUHU216HW,2013-11-11 01:22:00,
2013-11-10 18:25:00,37.1,29.5,29.89,NW,315,12.8,15.7,74,0.00,,,0.00,WUHU216HW,2013-11-11 01:25:00,
2013-11-10 18:27:00,36.7,29.5,29.89,WNW,293,13.4,15.7,75,0.00,,,0.00,WUHU216HW,2013-11-11 01:27:00,
2013-11-10 18:30:00,36.0,28.8,29.89,WNW,293,15.9,15.9,75,0.00,,,0.00,WUHU216HW,2013-11-11 01:30:00,
2013-11-10 18:31:00,35.8,29.0,29.89,WNW,293,12.8,15.9,76,0.00,,,0.00,WUHU216HW,2013-11-11 01:31:00,
2013-11-10 18:32:00,35.6,28.8,29.89,WNW,293,10.1,15.9,76,0.00,,,0.00,WUHU216HW,2013-11-11 01:32:00,
2013-11-10 18:33:00,35.5,28.9,29.89,NW,315,9.4,15.9,77,0.00,,,0.00,WUHU216HW,2013-11-11 01:33:00,
2013-11-10 18:35:00,35.3,28.7,29.89,WNW,293,9.8,15.9,77,0.00,,,0.00,WUHU216HW,2013-11-11 01:35:00,
2013-11-10 18:36:00,35.3,28.7,29.89,NW,315,12.5,15.9,77,0.00,,,0.00,WUHU216HW,2013-11-11 01:36:00,
2013-11-10 18:37:00,35.3,28.7,29.89,NW,315,10.5,15.9,77,0.00,,,0.00,WUHU216HW,2013-11-11 01:37:00,
2013-11-10 18:38:00,35.3,28.7,29.89,WNW,293,12.5,15.9,77,0.00,,,0.00,WUHU216HW,2013-11-11 01:38:00,
2013-11-10 18:40:00,35.6,29.4,29.90,NW,315,10.7,14.3,78,0.00,,,0.00,WUHU216HW,2013-11-11 01:40:00,
2013-11-10 18:41:00,35.6,29.4,29.90,WNW,293,10.3,14.3,78,0.00,,,0.00,WUHU216HW,2013-11-11 01:41:00,
2013-11-10 18:43:00,35.8,29.3,29.89,WNW,293,15.0,15.0,77,0.00,,,0.00,WUHU216HW,2013-11-11 01:43:00,
2013-11-10 18:45:00,36.2,29.6,29.89,NW,315,12.1,16.8,77,0.00,,,0.00,WUHU216HW,2013-11-11 01:45:00,
2013-11-10 18:46:00,36.2,29.6,29.90,NW,315,10.7,16.8,77,0.00,,,0.00,WUHU216HW,2013-11-11 01:46:00,
2013-11-10 18:48:00,36.2,29.4,29.90,WNW,293,10.5,16.8,76,0.00,,,0.00,WUHU216HW,2013-11-11 01:48:00,
2013-11-10 18:49:00,36.2,29.4,29.90,NW,315,13.2,16.8,76,0.00,,,0.00,WUHU216HW,2013-11-11 01:49:00,
2013-11-10 18:50:00,36.4,29.5,29.90,NW,315,10.3,16.8,76,0.00,,,0.00,WUHU216HW,2013-11-11 01:50:00,
2013-11-10 18:51:00,36.4,29.5,29.90,NW,315,10.3,16.8,76,0.00,,,0.00,WUHU216HW,2013-11-11 01:51:00,
2013-11-10 18:54:00,36.0,29.2,29.90,NW,315,15.0,15.0,76,0.00,,,0.00,WUHU216HW,2013-11-11 01:54:00,
2013-11-10 18:56:00,35.6,28.8,29.90,WNW,293,11.4,15.0,76,0.00,,,0.00,WUHU216HW,2013-11-11 01:56:00,
2013-11-10 18:59:00,35.5,28.9,29.89,NW,315,9.4,15.0,77,0.00,,,0.00,WUHU216HW,2013-11-11 01:59:00,
2013-11-10 19:01:00,35.5,29.3,29.89,WNW,293,10.3,15.0,78,0.00,,,0.00,WUHU216HW,2013-11-11 02:01:00,
2013-11-10 19:02:00,35.5,29.3,29.90,NNW,338,8.9,15.0,78,0.00,,,0.00,WUHU216HW,2013-11-11 02:02:00,
2013-11-10 19:04:00,35.6,29.4,29.90,NW,315,9.8,12.8,78,0.00,,,0.00,WUHU216HW,2013-11-11 02:04:00,
2013-11-10 19:05:00,35.6,29.4,29.90,NW,315,10.7,12.8,78,0.00,,,0.00,WUHU216HW,2013-11-11 02:05:00,
2013-11-10 19:06:00,35.6,29.4,29.90,WNW,293,9.2,12.1,78,0.00,,,0.00,WUHU216HW,2013-11-11 02:06:00,
2013-11-10 19:07:00,35.6,29.4,29.90,WNW,293,9.6,12.1,78,0.00,,,0.00,WUHU216HW,2013-11-11 02:07:00,
2013-11-10 19:09:00,35.6,29.4,29.90,NW,315,10.7,12.1,78,0.00,,,0.00,WUHU216HW,2013-11-11 02:09:00,
2013-11-10 19:10:00,35.6,29.4,29.90,NW,315,12.8,12.8,78,0.00,,,0.00,WUHU216HW,2013-11-11 02:10:00,
2013-11-10 19:11:00,35.6,29.4,29.90,NW,315,12.3,15.7,78,0.00,,,0.00,WUHU216HW,2013-11-11 02:11:00,
2013-11-10 19:12:00,35.6,29.4,29.90,NW,315,13.4,15.7,78,0.00,,,0.00,WUHU216HW,2013-11-11 02:12:00,
2013-11-10 19:15:00,35.1,28.5,29.90,NW,315,16.6,16.6,77,0.00,,,0.00,WUHU216HW,2013-11-11 02:15:00,
2013-11-10 19:16:00,34.7,28.5,29.90,NW,315,14.3,19.5,78,0.00,,,0.00,WUHU216HW,2013-11-11 02:16:00,
2013-11-10 19:17:00,34.7,28.5,29.90,NW,315,14.3,19.5,78,0.00,,,0.00,WUHU216HW,2013-11-11 02:17:00,
2013-11-10 19:20:00,34.6,28.6,29.90,NW,315,14.3,19.5,79,0.00,,,0.00,WUHU216HW,2013-11-11 02:20:00,
2013-11-10 19:21:00,34.6,28.6,29.90,NW,315,9.8,19.5,79,0.00,,,0.00,WUHU216HW,2013-11-11 02:21:00,
2013-11-10 19:22:00,34.6,28.6,29.90,NW,315,9.8,19.5,79,0.00,,,0.00,WUHU216HW,2013-11-11 02:22:00,
2013-11-10 19:25:00,34.7,28.8,29.90,NW,315,11.0,19.5,79,0.00,,,0.00,WUHU216HW,2013-11-11 02:25:00,
2013-11-10 19:26:00,34.9,29.0,29.90,WNW,293,11.6,15.7,79,0.00,,,0.00,WUHU216HW,2013-11-11 02:26:00,
2013-11-10 19:27:00,34.9,29.0,29.90,WNW,293,10.3,15.7,79,0.00,,,0.00,WUHU216HW,2013-11-11 02:27:00,
2013-11-10 19:30:00,35.5,29.5,29.90,WNW,293,10.5,15.7,79,0.00,,,0.00,WUHU216HW,2013-11-11 02:30:00,
2013-11-10 19:31:00,35.6,29.4,29.90,WNW,293,9.8,15.7,78,0.00,,,0.00,WUHU216HW,2013-11-11 02:31:00,
2013-11-10 19:32:00,35.6,29.4,29.90,NW,315,8.9,15.7,78,0.00,,,0.00,WUHU216HW,2013-11-11 02:32:00,
2013-11-10 19:33:00,35.6,29.4,29.90,WNW,293,9.2,15.7,78,0.00,,,0.00,WUHU216HW,2013-11-11 02:33:00,
2013-11-10 19:36:00,35.8,29.6,29.90,NW,315,10.5,12.8,78,0.00,,,0.00,WUHU216HW,2013-11-11 02:36:00,
2013-11-10 19:37:00,35.8,29.6,29.90,NW,315,11.4,12.8,78,0.00,,,0.00,WUHU216HW,2013-11-11 02:37:00,
2013-11-10 19:38:00,35.8,29.3,29.90,NW,315,14.3,14.3,77,0.00,,,0.00,WUHU216HW,2013-11-11 02:38:00,
2013-11-10 19:41:00,34.9,28.4,29.90,WNW,293,13.9,18.1,77,0.00,,,0.00,WUHU216HW,2013-11-11 02:41:00,
2013-11-10 19:42:00,34.9,28.4,29.90,NW,315,14.5,18.1,77,0.00,,,0.00,WUHU216HW,2013-11-11 02:42:00,
2013-11-10 19:43:00,34.6,28.4,29.90,NW,315,14.5,18.1,78,0.00,,,0.00,WUHU216HW,2013-11-11 02:43:00,
2013-11-10 19:47:00,34.0,27.8,29.90,NW,315,13.2,18.1,78,0.00,,,0.00,WUHU216HW,2013-11-11 02:47:00,
2013-11-10 19:48:00,33.8,27.9,29.90,NW,315,18.1,18.1,79,0.00,,,0.00,WUHU216HW,2013-11-11 02:48:00,
2013-11-10 19:52:00,33.3,27.5,29.91,NW,315,14.3,18.1,79,0.00,,,0.00,WUHU216HW,2013-11-11 02:52:00,
2013-11-10 19:53:00,33.1,27.3,29.91,NW,315,15.7,18.8,79,0.00,,,0.00,WUHU216HW,2013-11-11 02:53:00,
2013-11-10 19:57:00,32.6,27.1,29.91,NW,315,14.8,18.8,80,0.00,,,0.00,WUHU216HW,2013-11-11 02:57:00,
2013-11-10 19:58:00,32.6,27.1,29.92,NW,315,15.0,18.8,80,0.00,,,0.00,WUHU216HW,2013-11-11 02:58:00,
2013-11-10 19:59:00,32.6,27.1,29.92,NW,315,15.0,18.8,80,0.00,,,0.00,WUHU216HW,2013-11-11 02:59:00,
2013-11-10 20:02:00,32.2,26.8,29.92,WNW,293,15.0,18.8,80,0.00,,,0.00,WUHU216HW,2013-11-11 03:02:00,
2013-11-10 20:04:00,32.2,26.8,29.92,NW,315,12.8,17.4,80,0.00,,,0.00,WUHU216HW,2013-11-11 03:04:00,
2013-11-10 20:07:00,32.2,27.1,29.92,NW,315,13.2,17.0,81,0.00,,,0.00,WUHU216HW,2013-11-11 03:07:00,
2013-11-10 20:09:00,32.0,26.9,29.92,WNW,293,17.2,17.2,81,0.00,,,0.00,WUHU216HW,2013-11-11 03:09:00,
2013-11-10 20:10:00,32.2,27.1,29.92,NW,315,15.0,19.2,81,0.00,,,0.00,WUHU216HW,2013-11-11 03:10:00,
2013-11-10 20:13:00,32.2,27.1,29.91,NW,315,10.5,19.2,81,0.00,,,0.00,WUHU216HW,2013-11-11 03:13:00,
2013-11-10 20:14:00,32.2,27.1,29.91,NW,315,13.0,19.2,81,0.00,,,0.00,WUHU216HW,2013-11-11 03:14:00,
2013-11-10 20:15:00,32.4,27.3,29.92,NW,315,10.5,19.2,81,0.00,,,0.00,WUHU216HW,2013-11-11 03:15:00,
2013-11-10 20:18:00,32.4,27.3,29.92,WNW,293,14.5,19.2,81,0.00,,,0.00,WUHU216HW,2013-11-11 03:18:00,
2013-11-10 20:19:00,32.4,27.3,29.92,WNW,293,18.3,19.2,81,0.00,,,0.00,WUHU216HW,2013-11-11 03:19:00,
2013-11-10 20:20:00,32.4,27.0,29.92,WNW,293,12.1,18.3,80,0.00,,,0.00,WUHU216HW,2013-11-11 03:20:00,
2013-11-10 20:23:00,32.2,27.1,29.92,NW,315,10.7,18.3,81,0.00,,,0.00,WUHU216HW,2013-11-11 03:23:00,
2013-11-10 20:24:00,32.2,27.1,29.92,NW,315,12.3,18.3,81,0.00,,,0.00,WUHU216HW,2013-11-11 03:24:00,
2013-11-10 20:25:00,32.2,27.1,29.91,NW,315,11.2,18.3,81,0.00,,,0.00,WUHU216HW,2013-11-11 03:25:00,
2013-11-10 20:28:00,32.2,27.1,29.92,WNW,293,14.1,18.3,81,0.00,,,0.00,WUHU216HW,2013-11-11 03:28:00,
2013-11-10 20:29:00,32.2,27.1,29.92,NW,315,14.1,18.3,81,0.00,,,0.00,WUHU216HW,2013-11-11 03:29:00,
2013-11-10 20:30:00,32.2,27.1,29.92,NW,315,14.5,18.3,81,0.00,,,0.00,WUHU216HW,2013-11-11 03:30:00,
2013-11-10 20:31:00,32.0,26.9,29.92,NW,315,15.7,18.3,81,0.00,,,0.00,WUHU216HW,2013-11-11 03:31:00,
2013-11-10 20:33:00,32.0,26.9,29.92,NW,315,17.7,18.3,81,0.00,,,0.00,WUHU216HW,2013-11-11 03:33:00,
2013-11-10 20:34:00,32.0,26.9,29.92,NW,315,15.9,18.3,81,0.00,,,0.00,WUHU216HW,2013-11-11 03:34:00,
2013-11-10 20:35:00,32.0,26.6,29.92,NW,315,15.0,18.3,80,0.00,,,0.00,WUHU216HW,2013-11-11 03:35:00,
2013-11-10 20:36:00,32.0,26.6,29.92,NW,315,15.4,18.3,80,0.00,,,0.00,WUHU216HW,2013-11-11 03:36:00,
2013-11-10 20:38:00,31.9,26.5,29.92,NW,315,17.4,17.9,80,0.00,,,0.00,WUHU216HW,2013-11-11 03:38:00,
2013-11-10 20:39:00,31.9,26.5,29.92,WNW,293,16.6,17.9,80,0.00,,,0.00,WUHU216HW,2013-11-11 03:39:00,
2013-11-10 20:40:00,31.9,26.5,29.92,WNW,293,15.4,17.9,80,0.00,,,0.00,WUHU216HW,2013-11-11 03:40:00,
2013-11-10 20:41:00,31.9,26.5,29.92,WNW,293,19.0,19.0,80,0.00,,,0.00,WUHU216HW,2013-11-11 03:41:00,
2013-11-10 20:43:00,31.7,26.6,29.92,NW,315,17.7,19.0,81,0.00,,,0.00,WUHU216HW,2013-11-11 03:43:00,
2013-11-10 20:44:00,31.7,26.6,29.92,NW,315,18.1,19.0,81,0.00,,,0.00,WUHU216HW,2013-11-11 03:44:00,
2013-11-10 20:45:00,31.7,26.6,29.92,NW,315,19.2,19.2,81,0.00,,,0.00,WUHU216HW,2013-11-11 03:45:00,
2013-11-10 20:46:00,31.7,26.6,29.92,NW,315,18.8,19.2,81,0.00,,,0.00,WUHU216HW,2013-11-11 03:46:00,
2013-11-10 20:49:00,31.9,26.7,29.92,WNW,293,16.1,20.6,81,0.00,,,0.00,WUHU216HW,2013-11-11 03:49:00,
2013-11-10 20:50:00,31.7,26.8,29.92,NW,315,19.5,20.6,82,0.00,,,0.00,WUHU216HW,2013-11-11 03:50:00,
2013-11-10 20:51:00,31.7,26.6,29.92,WNW,293,19.2,20.6,81,0.00,,,0.00,WUHU216HW,2013-11-11 03:51:00,
2013-11-10 20:52:00,31.7,26.6,29.92,NW,315,19.5,20.8,81,0.00,,,0.00,WUHU216HW,2013-11-11 03:52:00,
2013-11-10 20:54:00,31.9,27.0,29.92,NW,315,16.3,20.8,82,0.00,,,0.00,WUHU216HW,2013-11-11 03:54:00,
2013-11-10 20:55:00,31.9,27.0,29.92,NW,315,17.4,20.8,82,0.00,,,0.00,WUHU216HW,2013-11-11 03:55:00,
2013-11-10 20:56:00,31.9,27.0,29.92,NW,315,15.7,20.8,82,0.00,,,0.00,WUHU216HW,2013-11-11 03:56:00,
2013-11-10 20:57:00,31.9,27.0,29.92,NW,315,12.1,20.8,82,0.00,,,0.00,WUHU216HW,2013-11-11 03:57:00,
2013-11-10 20:59:00,32.0,26.9,29.92,NW,315,17.9,20.8,81,0.00,,,0.00,WUHU216HW,2013-11-11 03:59:00,
2013-11-10 21:00:00,32.0,26.9,29.92,NW,315,18.8,20.8,81,0.00,,,0.00,WUHU216HW,2013-11-11 04:00:00,
2013-11-10 21:01:00,32.0,26.9,29.92,NW,315,18.8,20.8,81,0.00,,,0.00,WUHU216HW,2013-11-11 04:01:00,
2013-11-10 21:02:00,32.0,26.9,29.92,NW,315,15.9,19.5,81,0.00,,,0.00,WUHU216HW,2013-11-11 04:02:00,
2013-11-10 21:05:00,31.9,26.7,29.92,NW,315,18.3,19.5,81,0.00,,,0.00,WUHU216HW,2013-11-11 04:05:00,
2013-11-10 21:06:00,31.9,26.7,29.92,WNW,293,18.8,19.5,81,0.00,,,0.00,WUHU216HW,2013-11-11 04:06:00,
2013-11-10 21:07:00,31.9,26.7,29.92,NW,315,17.2,19.5,81,0.00,,,0.00,WUHU216HW,2013-11-11 04:07:00,
2013-11-10 21:10:00,31.9,26.7,29.92,WNW,293,17.9,20.8,81,0.00,,,0.00,WUHU216HW,2013-11-11 04:10:00,
2013-11-10 21:11:00,31.9,26.7,29.92,NW,315,17.9,20.8,81,0.00,,,0.00,WUHU216HW,2013-11-11 04:11:00,
2013-11-10 21:12:00,31.9,26.7,29.92,NW,315,18.6,20.8,81,0.00,,,0.00,WUHU216HW,2013-11-11 04:12:00,
2013-11-10 21:13:00,31.9,26.7,29.92,WNW,293,16.3,20.8,81,0.00,,,0.00,WUHU216HW,2013-11-11 04:13:00,
2013-11-10 21:15:00,31.7,26.6,29.92,NW,315,16.6,20.8,81,0.00,,,0.00,WUHU216HW,2013-11-11 04:15:00,
2013-11-10 21:16:00,31.7,26.6,29.92,NW,315,16.6,20.8,81,0.00,,,0.00,WUHU216HW,2013-11-11 04:16:00,
2013-11-10 21:17:00,31.7,26.6,29.92,NW,315,17.0,20.8,81,0.00,,,0.00,WUHU216HW,2013-11-11 04:17:00,
2013-11-10 21:18:00,31.7,26.6,29.92,NW,315,15.0,20.8,81,0.00,,,0.00,WUHU216HW,2013-11-11 04:18:00,
2013-11-10 21:20:00,31.7,26.6,29.92,NW,315,13.9,19.5,81,0.00,,,0.00,WUHU216HW,2013-11-11 04:20:00,
2013-11-10 21:21:00,31.7,26.6,29.92,NW,315,13.2,19.5,81,0.00,,,0.00,WUHU216HW,2013-11-11 04:21:00,
2013-11-10 21:22:00,31.7,26.6,29.92,NW,315,15.0,18.8,81,0.00,,,0.00,WUHU216HW,2013-11-11 04:22:00,
2013-11-10 21:23:00,31.7,26.6,29.93,NW,315,15.7,18.8,81,0.00,,,0.00,WUHU216HW,2013-11-11 04:23:00,
2013-11-10 21:26:00,31.7,26.6,29.93,NW,315,17.9,19.9,81,0.00,,,0.00,WUHU216HW,2013-11-11 04:26:00,
2013-11-10 21:27:00,31.7,26.6,29.93,WNW,293,14.3,19.9,81,0.00,,,0.00,WUHU216HW,2013-11-11 04:27:00,
2013-11-10 21:28:00,31.7,26.6,29.93,NW,315,21.5,21.5,81,0.00,,,0.00,WUHU216HW,2013-11-11 04:28:00,
2013-11-10 21:31:00,31.5,26.4,29.93,NW,315,17.9,21.5,81,0.00,,,0.00,WUHU216HW,2013-11-11 04:31:00,
2013-11-10 21:33:00,31.5,26.4,29.93,WNW,293,16.3,21.5,81,0.00,,,0.00,WUHU216HW,2013-11-11 04:33:00,
2013-11-10 21:34:00,31.5,26.4,29.93,WNW,293,16.1,21.5,81,0.00,,,0.00,WUHU216HW,2013-11-11 04:34:00,
2013-11-10 21:36:00,31.3,26.2,29.93,NW,315,15.7,21.5,81,0.00,,,0.00,WUHU216HW,2013-11-11 04:36:00,
2013-11-10 21:37:00,31.3,26.2,29.93,WNW,293,16.1,21.5,81,0.00,,,0.00,WUHU216HW,2013-11-11 04:37:00,
2013-11-10 21:39:00,31.3,26.2,29.93,WNW,293,16.1,21.5,81,0.00,,,0.00,WUHU216HW,2013-11-11 04:39:00,
2013-11-10 21:41:00,31.3,26.2,29.93,WNW,293,19.5,21.5,81,0.00,,,0.00,WUHU216HW,2013-11-11 04:41:00,
2013-11-10 21:42:00,31.3,26.2,29.93,NW,315,19.7,21.5,81,0.00,,,0.00,WUHU216HW,2013-11-11 04:42:00,
2013-11-10 21:44:00,31.3,26.2,29.93,NW,315,20.8,22.1,81,0.00,,,0.00,WUHU216HW,2013-11-11 04:44:00,
2013-11-10 21:45:00,31.3,26.2,29.93,NW,315,20.8,22.1,81,0.00,,,0.00,WUHU216HW,2013-11-11 04:45:00,
2013-11-10 21:46:00,31.3,26.2,29.93,WNW,293,17.2,22.1,81,0.00,,,0.00,WUHU216HW,2013-11-11 04:46:00,
2013-11-10 21:47:00,31.3,26.2,29.93,WNW,293,16.3,22.1,81,0.00,,,0.00,WUHU216HW,2013-11-11 04:47:00,
2013-11-10 21:49:00,31.3,26.2,29.93,WNW,293,19.2,22.1,81,0.00,,,0.00,WUHU216HW,2013-11-11 04:49:00,
2013-11-10 21:50:00,31.3,26.2,29.93,WNW,293,14.8,22.1,81,0.00,,,0.00,WUHU216HW,2013-11-11 04:50:00,
2013-11-10 21:51:00,31.1,26.0,29.93,NW,315,13.4,22.1,81,0.00,,,0.00,WUHU216HW,2013-11-11 04:51:00,
2013-11-10 21:52:00,31.1,26.0,29.93,NW,315,11.6,22.1,81,0.00,,,0.00,WUHU216HW,2013-11-11 04:52:00,
2013-11-10 21:55:00,31.3,26.5,29.93,WNW,293,16.3,20.1,82,0.00,,,0.00,WUHU216HW,2013-11-11 04:55:00,
2013-11-10 21:56:00,31.3,26.5,29.93,WNW,293,14.3,20.1,82,0.00,,,0.00,WUHU216HW,2013-11-11 04:56:00,
2013-11-10 21:57:00,31.3,26.5,29.93,WNW,293,17.0,19.5,82,0.00,,,0.00,WUHU216HW,2013-11-11 04:57:00,
2013-11-10 22:00:00,31.3,26.2,29.93,NW,315,17.2,19.5,81,0.00,,,0.00,WUHU216HW,2013-11-11 05:00:00,
2013-11-10 22:01:00,31.3,26.2,29.93,NW,315,17.0,19.5,81,0.00,,,0.00,WUHU216HW,2013-11-11 05:01:00,
2013-11-10 22:02:00,31.3,26.2,29.93,NW,315,19.5,19.5,81,0.00,,,0.00,WUHU216HW,2013-11-11 05:02:00,
2013-11-10 22:06:00,31.3,26.2,29.93,NW,315,20.6,21.7,81,0.00,,,0.00,WUHU216HW,2013-11-11 05:06:00,
2013-11-10 22:07:00,31.3,26.2,29.93,WNW,293,19.9,21.7,81,0.00,,,0.00,WUHU216HW,2013-11-11 05:07:00,
2013-11-10 22:11:00,31.3,26.2,29.94,WNW,293,20.8,23.5,81,0.00,,,0.00,WUHU216HW,2013-11-11 05:11:00,
2013-11-10 22:12:00,31.3,26.2,29.93,WNW,293,18.8,23.5,81,0.00,,,0.00,WUHU216HW,2013-11-11 05:12:00,
2013-11-10 22:13:00,31.3,26.5,29.93,WNW,293,15.4,23.5,82,0.00,,,0.00,WUHU216HW,2013-11-11 05:13:00,
2013-11-10 22:16:00,31.3,26.5,29.94,NW,315,17.9,23.5,82,0.00,,,0.00,WUHU216HW,2013-11-11 05:16:00,
2013-11-10 22:17:00,31.3,26.5,29.94,WNW,293,14.3,23.5,82,0.00,,,0.00,WUHU216HW,2013-11-11 05:17:00,
2013-11-10 22:18:00,31.3,26.5,29.94,WNW,293,15.7,23.5,82,0.00,,,0.00,WUHU216HW,2013-11-11 05:18:00,
2013-11-10 22:21:00,31.5,26.6,29.94,NW,315,12.1,19.2,82,0.00,,,0.00,WUHU216HW,2013-11-11 05:21:00,
2013-11-10 22:22:00,31.5,26.6,29.94,NW,315,11.0,18.6,82,0.00,,,0.00,WUHU216HW,2013-11-11 05:22:00,
2013-11-10 22:23:00,31.7,26.8,29.94,NW,315,15.4,18.6,82,0.00,,,0.00,WUHU216HW,2013-11-11 05:23:00,
2013-11-10 22:26:00,31.7,26.6,29.94,West,270,11.4,16.6,81,0.00,,,0.00,WUHU216HW,2013-11-11 05:26:00,
2013-11-10 22:27:00,31.9,26.7,29.94,West,270,11.4,16.6,81,0.00,,,0.00,WUHU216HW,2013-11-11 05:27:00,
2013-11-10 22:28:00,31.9,26.7,29.94,West,270,10.3,16.6,81,0.00,,,0.00,WUHU216HW,2013-11-11 05:28:00,
2013-11-10 22:29:00,31.9,26.7,29.94,West,270,12.8,16.6,81,0.00,,,0.00,WUHU216HW,2013-11-11 05:29:00,
2013-11-10 22:31:00,31.9,26.7,29.94,West,270,10.1,15.4,81,0.00,,,0.00,WUHU216HW,2013-11-11 05:31:00,
2013-11-10 22:32:00,32.0,26.9,29.94,West,270,10.5,15.4,81,0.00,,,0.00,WUHU216HW,2013-11-11 05:32:00,
2013-11-10 22:33:00,32.0,26.9,29.94,WNW,293,11.2,15.4,81,0.00,,,0.00,WUHU216HW,2013-11-11 05:33:00,
2013-11-10 22:34:00,32.0,26.9,29.94,WNW,293,8.5,14.1,81,0.00,,,0.00,WUHU216HW,2013-11-11 05:34:00,
2013-11-10 22:36:00,32.0,26.9,29.95,WNW,293,4.5,12.8,81,0.00,,,0.00,WUHU216HW,2013-11-11 05:36:00,
2013-11-10 22:37:00,32.0,26.9,29.95,West,270,5.8,12.8,81,0.00,,,0.00,WUHU216HW,2013-11-11 05:37:00,
2013-11-10 22:38:00,32.0,26.9,29.95,WNW,293,6.9,12.8,81,0.00,,,0.00,WUHU216HW,2013-11-11 05:38:00,
2013-11-10 22:39:00,32.0,26.9,29.95,WNW,293,10.7,12.5,81,0.00,,,0.00,WUHU216HW,2013-11-11 05:39:00,
2013-11-10 22:41:00,32.0,26.9,29.95,NW,315,9.6,11.9,81,0.00,,,0.00,WUHU216HW,2013-11-11 05:41:00,
2013-11-10 22:42:00,32.0,26.9,29.95,WNW,293,12.8,12.8,81,0.00,,,0.00,WUHU216HW,2013-11-11 05:42:00,
2013-11-10 22:44:00,31.9,26.5,29.94,WNW,293,9.8,13.2,80,0.00,,,0.00,WUHU216HW,2013-11-11 05:44:00,
2013-11-10 22:45:00,31.7,26.3,29.95,WNW,293,11.9,13.2,80,0.00,,,0.00,WUHU216HW,2013-11-11 05:45:00,
2013-11-10 22:46:00,31.7,26.3,29.95,WNW,293,9.8,13.2,80,0.00,,,0.00,WUHU216HW,2013-11-11 05:46:00,
2013-11-10 22:47:00,31.5,26.4,29.95,WNW,293,12.8,13.2,81,0.00,,,0.00,WUHU216HW,2013-11-11 05:47:00,
2013-11-10 22:49:00,31.5,26.4,29.95,WNW,293,9.6,13.2,81,0.00,,,0.00,WUHU216HW,2013-11-11 05:49:00,
2013-11-10 22:50:00,31.5,26.4,29.95,NW,315,9.2,13.2,81,0.00,,,0.00,WUHU216HW,2013-11-11 05:50:00,
2013-11-10 22:52:00,31.5,26.4,29.95,NNW,338,7.6,13.2,81,0.00,,,0.00,WUHU216HW,2013-11-11 05:52:00,
2013-11-10 22:53:00,31.5,26.4,29.95,NW,315,6.9,13.2,81,0.00,,,0.00,WUHU216HW,2013-11-11 05:53:00,
2013-11-10 22:54:00,31.5,26.4,29.95,NW,315,8.5,12.8,81,0.00,,,0.00,WUHU216HW,2013-11-11 05:54:00,
2013-11-10 22:55:00,31.3,26.2,29.95,WNW,293,8.5,12.8,81,0.00,,,0.00,WUHU216HW,2013-11-11 05:55:00,
2013-11-10 22:56:00,31.3,26.2,29.95,West,270,7.6,12.8,81,0.00,,,0.00,WUHU216HW,2013-11-11 05:56:00,
2013-11-10 22:57:00,31.3,26.2,29.95,NW,315,7.8,12.8,81,0.00,,,0.00,WUHU216HW,2013-11-11 05:57:00,
2013-11-10 22:58:00,31.3,26.2,29.95,NW,315,5.6,11.0,81,0.00,,,0.00,WUHU216HW,2013-11-11 05:58:00,
2013-11-10 22:59:00,31.3,26.2,29.95,NW,315,7.2,10.1,81,0.00,,,0.00,WUHU216HW,2013-11-11 05:59:00,
2013-11-10 23:00:00,31.1,26.0,29.95,NNW,338,6.3,10.1,81,0.00,,,0.00,WUHU216HW,2013-11-11 06:00:00,
2013-11-10 23:01:00,31.1,26.0,29.95,NW,315,6.5,10.1,81,0.00,,,0.00,WUHU216HW,2013-11-11 06:01:00,
2013-11-10 23:02:00,31.0,25.8,29.95,NW,315,10.3,10.3,81,0.00,,,0.00,WUHU216HW,2013-11-11 06:02:00,
2013-11-10 23:03:00,31.0,25.8,29.95,NW,315,8.7,10.3,81,0.00,,,0.00,WUHU216HW,2013-11-11 06:03:00,
2013-11-10 23:04:00,30.8,25.9,29.95,NW,315,6.3,10.3,82,0.00,,,0.00,WUHU216HW,2013-11-11 06:04:00,
2013-11-10 23:05:00,30.8,25.9,29.95,NNW,338,7.6,10.3,82,0.00,,,0.00,WUHU216HW,2013-11-11 06:05:00,
2013-11-10 23:06:00,30.6,25.7,29.95,NNW,338,9.2,10.3,82,0.00,,,0.00,WUHU216HW,2013-11-11 06:06:00,
2013-11-10 23:07:00,30.6,25.7,29.95,NW,315,9.2,10.3,82,0.00,,,0.00,WUHU216HW,2013-11-11 06:07:00,
2013-11-10 23:08:00,30.6,25.7,29.95,NW,315,8.9,10.3,82,0.00,,,0.00,WUHU216HW,2013-11-11 06:08:00,
2013-11-10 23:10:00,30.6,25.7,29.95,NNW,338,7.6,10.3,82,0.00,,,0.00,WUHU216HW,2013-11-11 06:10:00,
2013-11-10 23:11:00,30.6,25.7,29.95,NW,315,11.0,11.0,82,0.00,,,0.00,WUHU216HW,2013-11-11 06:11:00,
2013-11-10 23:12:00,30.6,25.7,29.95,NW,315,9.8,11.0,82,0.00,,,0.00,WUHU216HW,2013-11-11 06:12:00,
2013-11-10 23:14:00,30.6,25.7,29.95,NNW,338,8.9,11.0,82,0.00,,,0.00,WUHU216HW,2013-11-11 06:14:00,
2013-11-10 23:15:00,30.4,25.6,29.95,NNW,338,9.4,11.0,82,0.00,,,0.00,WUHU216HW,2013-11-11 06:15:00,
2013-11-10 23:16:00,30.2,25.4,29.95,NW,315,8.5,11.0,82,0.00,,,0.00,WUHU216HW,2013-11-11 06:16:00,
2013-11-10 23:17:00,30.2,25.4,29.95,NW,315,10.5,11.0,82,0.00,,,0.00,WUHU216HW,2013-11-11 06:17:00,
2013-11-10 23:18:00,30.1,25.2,29.95,NNW,338,10.5,11.0,82,0.00,,,0.00,WUHU216HW,2013-11-11 06:18:00,
2013-11-10 23:19:00,30.1,25.6,29.95,NW,315,11.2,11.2,83,0.00,,,0.00,WUHU216HW,2013-11-11 06:19:00,
2013-11-10 23:20:00,29.9,25.4,29.95,NW,315,11.2,11.4,83,0.00,,,0.00,WUHU216HW,2013-11-11 06:20:00,
2013-11-10 23:21:00,29.9,25.4,29.95,NW,315,14.8,14.8,83,0.00,,,0.00,WUHU216HW,2013-11-11 06:21:00,
2013-11-10 23:22:00,29.9,25.4,29.95,NW,315,13.4,14.8,83,0.00,,,0.00,WUHU216HW,2013-11-11 06:22:00,
2013-11-10 23:23:00,29.9,25.4,29.95,NW,315,12.8,14.8,83,0.00,,,0.00,WUHU216HW,2013-11-11 06:23:00,
2013-11-10 23:24:00,29.9,25.4,29.95,NW,315,12.8,15.0,83,0.00,,,0.00,WUHU216HW,2013-11-11 06:24:00,
2013-11-10 23:26:00,29.9,25.4,29.95,NW,315,13.9,15.0,83,0.00,,,0.00,WUHU216HW,2013-11-11 06:26:00,
2013-11-10 23:27:00,29.9,25.4,29.95,NW,315,13.4,15.0,83,0.00,,,0.00,WUHU216HW,2013-11-11 06:27:00,
2013-11-10 23:28:00,29.9,25.4,29.95,NW,315,17.7,17.7,83,0.00,,,0.00,WUHU216HW,2013-11-11 06:28:00,
2013-11-10 23:29:00,29.9,25.4,29.95,NNW,338,13.0,17.7,83,0.00,,,0.00,WUHU216HW,2013-11-11 06:29:00,
2013-11-10 23:31:00,29.7,25.2,29.95,NW,315,14.3,17.7,83,0.00,,,0.00,WUHU216HW,2013-11-11 06:31:00,
2013-11-10 23:32:00,29.9,25.4,29.95,NW,315,14.1,17.7,83,0.00,,,0.00,WUHU216HW,2013-11-11 06:32:00,
2013-11-10 23:33:00,29.7,25.2,29.95,NW,315,13.2,17.7,83,0.00,,,0.00,WUHU216HW,2013-11-11 06:33:00,
2013-11-10 23:34:00,29.9,25.4,29.95,WNW,293,12.8,17.7,83,0.00,,,0.00,WUHU216HW,2013-11-11 06:34:00,
2013-11-10 23:36:00,29.9,25.4,29.95,NW,315,11.4,17.7,83,0.00,,,0.00,WUHU216HW,2013-11-11 06:36:00,
2013-11-10 23:37:00,29.9,25.4,29.95,NW,315,11.4,17.7,83,0.00,,,0.00,WUHU216HW,2013-11-11 06:37:00,
2013-11-10 23:38:00,29.9,25.4,29.95,NW,315,12.1,17.7,83,0.00,,,0.00,WUHU216HW,2013-11-11 06:38:00,
2013-11-10 23:39:00,29.9,25.4,29.95,NW,315,12.8,16.8,83,0.00,,,0.00,WUHU216HW,2013-11-11 06:39:00,
2013-11-10 23:40:00,29.9,25.4,29.95,NW,315,11.9,16.8,83,0.00,,,0.00,WUHU216HW,2013-11-11 06:40:00,
2013-11-10 23:42:00,29.9,25.7,29.95,NNW,338,11.2,15.2,84,0.00,,,0.00,WUHU216HW,2013-11-11 06:42:00,
2013-11-10 23:43:00,30.1,25.8,29.95,NNW,338,11.0,14.5,84,0.00,,,0.00,WUHU216HW,2013-11-11 06:43:00,
2013-11-10 23:44:00,30.1,25.8,29.95,NNW,338,7.2,13.6,84,0.00,,,0.00,WUHU216HW,2013-11-11 06:44:00,
2013-11-10 23:45:00,30.1,25.8,29.95,NW,315,7.6,13.4,84,0.00,,,0.00,WUHU216HW,2013-11-11 06:45:00,
2013-11-10 23:47:00,30.2,26.0,29.95,NW,315,7.8,12.8,84,0.00,,,0.00,WUHU216HW,2013-11-11 06:47:00,
2013-11-10 23:48:00,30.2,26.0,29.95,NW,315,6.9,12.8,84,0.00,,,0.00,WUHU216HW,2013-11-11 06:48:00,
2013-11-10 23:50:00,30.2,25.8,29.95,NW,315,8.1,11.9,83,0.00,,,0.00,WUHU216HW,2013-11-11 06:50:00,
2013-11-10 23:52:00,30.2,25.8,29.95,West,270,7.6,11.9,83,0.00,,,0.00,WUHU216HW,2013-11-11 06:52:00,
2013-11-10 23:53:00,30.2,25.8,29.95,North,0,10.1,11.2,83,0.00,,,0.00,WUHU216HW,2013-11-11 06:53:00,
2013-11-10 23:55:00,30.2,25.8,29.95,NW,315,8.1,10.7,83,0.00,,,0.00,WUHU216HW,2013-11-11 06:55:00,
2013-11-10 23:57:00,30.2,25.8,29.96,NW,315,11.4,12.1,83,0.00,,,0.00,WUHU216HW,2013-11-11 06:57:00,
2013-11-10 23:58:00,30.2,25.8,29.96,NW,315,10.3,12.1,83,0.00,,,0.00,WUHU216HW,2013-11-11 06:58:00,
2013-11-10 23:59:00,30.2,25.8,29.96,NW,315,10.5,12.1,83,0.00,,,0.00,WUHU216HW,2013-11-11 06:59:00,